Time,TemperatureF,DewpointF,PressureIn,WindDirection,WindDirectionDegrees,WindSpeedMPH,WindSpeedGustMPH,Humidity,HourlyPrecipIn,Conditions,Clouds,dailyrainin,SolarRadiationWatts/m^2,SoftwareType,DateUTC
2013-04-10 00:00:00,41.7,40.6,29.90,North,360,5.0,7.0,96,0.06,,,0.00,0,Wunderground v.1.15,2013-04-10 05:00:00,
2013-04-10 00:01:00,41.7,40.6,29.90,NNW,333,7.0,7.0,96,0.05,,,0.00,0,Wunderground v.1.15,2013-04-10 05:01:00,
2013-04-10 00:03:00,41.7,40.6,29.89,NNW,339,5.0,13.0,96,0.04,,,0.00,0,Wunderground v.1.15,2013-04-10 05:03:00,
2013-04-10 00:04:00,41.6,40.5,29.89,North,5,5.0,13.0,96,0.04,,,0.00,0,Wunderground v.1.15,2013-04-10 05:04:00,
2013-04-10 00:07:00,41.5,40.4,29.88,NNE,32,9.0,13.0,96,0.00,,,0.00,0,Wunderground v.1.15,2013-04-10 05:07:00,
2013-04-10 00:09:00,41.5,40.4,29.88,NNE,13,9.0,13.0,96,0.00,,,0.00,0,Wunderground v.1.15,2013-04-10 05:09:00,
2013-04-10 00:11:00,41.5,40.4,29.88,NE,45,6.0,7.0,96,0.00,,,0.00,0,Wunderground v.1.15,2013-04-10 05:11:00,
2013-04-10 00:12:00,41.5,40.4,29.87,North,5,14.0,14.0,96,0.00,,,0.00,0,Wunderground v.1.15,2013-04-10 05:12:00,
2013-04-10 00:13:00,41.4,40.3,29.87,NNW,333,6.0,14.0,96,0.00,,,0.00,0,Wunderground v.1.15,2013-04-10 05:13:00,
2013-04-10 00:18:00,41.2,40.1,29.87,North,5,9.0,16.0,96,0.00,,,0.00,0,Wunderground v.1.15,2013-04-10 05:18:00,
2013-04-10 00:19:00,41.1,40.0,29.87,NE,43,7.0,16.0,96,0.00,,,0.00,0,Wunderground v.1.15,2013-04-10 05:19:00,
2013-04-10 00:22:00,41.0,39.9,29.87,North,355,6.0,16.0,96,0.42,,,0.02,0,Wunderground v.1.15,2013-04-10 05:22:00,
2013-04-10 00:24:00,40.8,39.7,29.87,NNE,30,13.0,16.0,96,0.22,,,0.02,0,Wunderground v.1.15,2013-04-10 05:24:00,
2013-04-10 00:25:00,40.7,39.6,29.86,NNE,31,13.0,16.0,96,0.16,,,0.02,0,Wunderground v.1.15,2013-04-10 05:25:00,
2013-04-10 00:28:00,40.5,39.4,29.85,NNE,26,12.0,16.0,96,0.09,,,0.02,0,Wunderground v.1.15,2013-04-10 05:28:00,
2013-04-10 00:29:00,40.5,39.2,29.85,NE,42,7.0,16.0,95,0.08,,,0.02,0,Wunderground v.1.15,2013-04-10 05:29:00,
2013-04-10 00:33:00,40.4,39.1,29.85,NE,52,14.0,14.0,95,0.05,,,0.02,0,Wunderground v.1.15,2013-04-10 05:33:00,
2013-04-10 00:36:00,40.3,39.0,29.85,NNE,24,11.0,21.0,95,0.04,,,0.02,0,Wunderground v.1.15,2013-04-10 05:36:00,
2013-04-10 00:39:00,40.3,39.3,29.84,NE,53,8.0,21.0,96,0.04,,,0.03,0,Wunderground v.1.15,2013-04-10 05:39:00,
2013-04-10 00:41:00,40.2,38.9,29.82,ENE,65,11.0,12.0,95,0.04,,,0.03,0,Wunderground v.1.15,2013-04-10 05:41:00,
2013-04-10 00:42:00,40.2,39.2,29.81,ENE,58,18.0,18.0,96,0.04,,,0.03,0,Wunderground v.1.15,2013-04-10 05:42:00,
2013-04-10 00:47:00,40.2,39.2,29.76,ESE,107,18.0,19.0,96,0.04,,,0.03,0,Wunderground v.1.15,2013-04-10 05:47:00,
2013-04-10 00:48:00,40.2,39.2,29.77,East,80,17.0,19.0,96,0.04,,,0.03,0,Wunderground v.1.15,2013-04-10 05:48:00,
2013-04-10 00:49:00,40.3,39.3,29.77,East,89,15.0,19.0,96,0.04,,,0.03,0,Wunderground v.1.15,2013-04-10 05:49:00,
2013-04-10 00:52:00,40.6,39.5,29.79,ENE,57,16.0,17.0,96,0.04,,,0.03,0,Wunderground v.1.15,2013-04-10 05:52:00,
2013-04-10 00:55:00,40.8,39.5,29.79,NNE,26,13.0,17.0,95,0.00,,,0.03,0,Wunderground v.1.15,2013-04-10 05:55:00,
2013-04-10 00:58:00,41.0,39.7,29.80,North,10,8.0,17.0,95,0.00,,,0.03,0,Wunderground v.1.15,2013-04-10 05:58:00,
2013-04-10 00:59:00,41.1,39.8,29.80,NNE,28,8.0,17.0,95,0.00,,,0.03,0,Wunderground v.1.15,2013-04-10 05:59:00,
2013-04-10 01:00:00,41.1,39.8,29.80,NE,36,11.0,11.0,95,0.00,,,0.03,0,Wunderground v.1.15,2013-04-10 06:00:00,
2013-04-10 01:03:00,41.3,40.0,29.79,NNE,19,10.0,13.0,95,0.00,,,0.04,0,Wunderground v.1.15,2013-04-10 06:03:00,
2013-04-10 01:05:00,41.3,39.7,29.79,East,80,15.0,15.0,94,0.00,,,0.04,0,Wunderground v.1.15,2013-04-10 06:05:00,
2013-04-10 01:07:00,41.3,39.7,29.80,ENE,69,14.0,15.0,94,0.00,,,0.04,0,Wunderground v.1.15,2013-04-10 06:07:00,
2013-04-10 01:09:00,41.3,39.7,29.78,NNE,25,8.0,15.0,94,0.00,,,0.04,0,Wunderground v.1.15,2013-04-10 06:09:00,
2013-04-10 01:12:00,41.2,39.6,29.78,East,95,15.0,15.0,94,0.00,,,0.04,0,Wunderground v.1.15,2013-04-10 06:12:00,
2013-04-10 01:13:00,41.2,39.6,29.78,NE,44,14.0,15.0,94,0.00,,,0.04,0,Wunderground v.1.15,2013-04-10 06:13:00,
2013-04-10 01:15:00,41.2,39.6,29.78,East,80,14.0,15.0,94,0.00,,,0.04,0,Wunderground v.1.15,2013-04-10 06:15:00,
2013-04-10 01:18:00,41.2,39.6,29.78,East,92,10.0,15.0,94,0.00,,,0.04,0,Wunderground v.1.15,2013-04-10 06:18:00,
2013-04-10 01:19:00,41.1,39.5,29.78,ENE,61,15.0,15.0,94,0.00,,,0.04,0,Wunderground v.1.15,2013-04-10 06:19:00,
2013-04-10 01:21:00,41.1,39.5,29.78,ENE,60,10.0,14.0,94,0.00,,,0.04,0,Wunderground v.1.15,2013-04-10 06:21:00,
2013-04-10 01:23:00,41.1,39.5,29.79,ENE,63,11.0,14.0,94,0.00,,,0.04,0,Wunderground v.1.15,2013-04-10 06:23:00,
2013-04-10 01:25:00,41.1,39.5,29.79,ENE,67,10.0,14.0,94,0.00,,,0.04,0,Wunderground v.1.15,2013-04-10 06:25:00,
2013-04-10 01:27:00,41.1,39.5,29.78,ENE,74,14.0,14.0,94,0.00,,,0.04,0,Wunderground v.1.15,2013-04-10 06:27:00,
2013-04-10 01:28:00,41.1,39.5,29.77,East,79,15.0,15.0,94,0.00,,,0.04,0,Wunderground v.1.15,2013-04-10 06:28:00,
2013-04-10 01:29:00,41.1,39.5,29.77,NE,51,9.0,15.0,94,0.00,,,0.05,0,Wunderground v.1.15,2013-04-10 06:29:00,
2013-04-10 01:31:00,41.1,39.5,29.76,East,88,9.0,15.0,94,0.00,,,0.05,0,Wunderground v.1.15,2013-04-10 06:31:00,
2013-04-10 01:33:00,41.1,39.5,29.75,ENE,71,11.0,15.0,94,0.16,,,0.06,0,Wunderground v.1.15,2013-04-10 06:33:00,
2013-04-10 01:35:00,41.0,39.4,29.74,NE,47,16.0,16.0,94,0.16,,,0.06,0,Wunderground v.1.15,2013-04-10 06:35:00,
2013-04-10 01:39:00,41.0,39.4,29.74,ENE,77,9.0,16.0,94,0.09,,,0.06,0,Wunderground v.1.15,2013-04-10 06:39:00,
2013-04-10 01:40:00,41.0,39.4,29.75,ENE,63,4.0,11.0,94,0.07,,,0.06,0,Wunderground v.1.15,2013-04-10 06:40:00,
2013-04-10 01:41:00,41.0,39.4,29.76,ENE,59,9.0,11.0,94,0.07,,,0.06,0,Wunderground v.1.15,2013-04-10 06:41:00,
2013-04-10 01:45:00,41.0,39.4,29.78,East,95,7.0,12.0,94,0.05,,,0.07,0,Wunderground v.1.15,2013-04-10 06:45:00,
2013-04-10 01:46:00,41.1,39.5,29.78,ENE,69,5.0,12.0,94,0.05,,,0.07,0,Wunderground v.1.15,2013-04-10 06:46:00,
2013-04-10 01:47:00,41.1,39.5,29.78,ENE,67,10.0,12.0,94,0.05,,,0.07,0,Wunderground v.1.15,2013-04-10 06:47:00,
2013-04-10 01:52:00,41.1,39.5,29.81,ENE,71,8.0,10.0,94,0.05,,,0.07,0,Wunderground v.1.15,2013-04-10 06:52:00,
2013-04-10 01:54:00,41.2,39.6,29.81,NE,55,6.0,10.0,94,0.05,,,0.07,0,Wunderground v.1.15,2013-04-10 06:54:00,
2013-04-10 01:55:00,41.2,39.6,29.80,NE,40,8.0,10.0,94,0.05,,,0.07,0,Wunderground v.1.15,2013-04-10 06:55:00,
2013-04-10 01:57:00,41.2,39.6,29.81,NE,53,6.0,10.0,94,0.04,,,0.07,0,Wunderground v.1.15,2013-04-10 06:57:00,
2013-04-10 02:01:00,41.3,40.0,29.82,East,84,8.0,9.0,95,0.32,,,0.09,0,Wunderground v.1.15,2013-04-10 07:01:00,
2013-04-10 02:02:00,41.2,39.9,29.82,ESE,105,4.0,9.0,95,0.57,,,0.09,0,Wunderground v.1.15,2013-04-10 07:02:00,
2013-04-10 02:06:00,41.3,40.0,29.82,SE,124,12.0,14.0,95,0.29,,,0.11,0,Wunderground v.1.15,2013-04-10 07:06:00,
2013-04-10 02:08:00,41.3,40.0,29.83,ESE,109,7.0,14.0,95,0.31,,,0.12,0,Wunderground v.1.15,2013-04-10 07:08:00,
2013-04-10 02:09:00,41.3,40.0,29.82,East,84,7.0,14.0,95,0.31,,,0.13,0,Wunderground v.1.15,2013-04-10 07:09:00,
2013-04-10 02:12:00,41.3,40.0,29.82,ENE,69,4.0,9.0,95,0.21,,,0.14,0,Wunderground v.1.15,2013-04-10 07:12:00,
2013-04-10 02:14:00,41.3,39.7,29.82,ENE,69,7.0,9.0,94,0.21,,,0.14,0,Wunderground v.1.15,2013-04-10 07:14:00,
2013-04-10 02:15:00,41.3,39.7,29.81,ENE,62,5.0,9.0,94,0.17,,,0.14,0,Wunderground v.1.15,2013-04-10 07:15:00,
2013-04-10 02:17:00,41.3,40.0,29.82,NE,46,5.0,9.0,95,0.10,,,0.14,0,Wunderground v.1.15,2013-04-10 07:17:00,
2013-04-10 02:19:00,41.3,40.0,29.82,East,89,3.0,9.0,95,0.08,,,0.14,0,Wunderground v.1.15,2013-04-10 07:19:00,
2013-04-10 02:20:00,41.3,40.0,29.82,East,83,3.0,5.0,95,0.07,,,0.14,0,Wunderground v.1.15,2013-04-10 07:20:00,
2013-04-10 02:24:00,41.3,40.0,29.83,ENE,66,3.0,5.0,95,0.05,,,0.15,0,Wunderground v.1.15,2013-04-10 07:24:00,
2013-04-10 02:25:00,41.3,40.0,29.83,NE,55,5.0,5.0,95,0.05,,,0.15,0,Wunderground v.1.15,2013-04-10 07:25:00,
2013-04-10 02:28:00,41.3,40.0,29.84,NE,44,1.0,6.0,95,0.05,,,0.15,0,Wunderground v.1.15,2013-04-10 07:28:00,
2013-04-10 02:30:00,41.3,40.0,29.85,NE,44,0.0,3.0,95,0.08,,,0.16,0,Wunderground v.1.15,2013-04-10 07:30:00,
2013-04-10 02:31:00,41.4,40.1,29.85,ENE,78,3.0,3.0,95,0.08,,,0.16,0,Wunderground v.1.15,2013-04-10 07:31:00,
2013-04-10 02:32:00,41.4,40.1,29.85,East,92,3.0,3.0,95,0.08,,,0.16,0,Wunderground v.1.15,2013-04-10 07:32:00,
2013-04-10 02:33:00,41.4,40.1,29.85,ENE,61,2.0,3.0,95,0.08,,,0.16,0,Wunderground v.1.15,2013-04-10 07:33:00,
2013-04-10 02:36:00,41.4,40.1,29.85,ENE,59,1.0,3.0,95,0.09,,,0.16,0,Wunderground v.1.15,2013-04-10 07:36:00,
2013-04-10 02:37:00,41.4,40.1,29.85,ENE,59,2.0,3.0,95,0.09,,,0.16,0,Wunderground v.1.15,2013-04-10 07:37:00,
2013-04-10 02:39:00,41.4,40.1,29.86,NE,55,3.0,3.0,95,0.09,,,0.17,0,Wunderground v.1.15,2013-04-10 07:39:00,
2013-04-10 02:42:00,41.5,40.2,29.86,NW,304,5.0,6.0,95,0.09,,,0.17,0,Wunderground v.1.15,2013-04-10 07:42:00,
2013-04-10 02:43:00,41.5,40.2,29.87,WNW,302,6.0,6.0,95,0.09,,,0.17,0,Wunderground v.1.15,2013-04-10 07:43:00,
2013-04-10 02:45:00,41.5,40.2,29.88,WNW,294,6.0,8.0,95,0.08,,,0.18,0,Wunderground v.1.15,2013-04-10 07:45:00,
2013-04-10 02:48:00,41.5,40.2,29.88,WNW,300,7.0,8.0,95,0.08,,,0.18,0,Wunderground v.1.15,2013-04-10 07:48:00,
2013-04-10 02:50:00,41.6,40.3,29.89,WNW,303,7.0,7.0,95,0.08,,,0.18,0,Wunderground v.1.15,2013-04-10 07:50:00,
2013-04-10 02:54:00,41.6,40.3,29.90,WNW,293,5.0,8.0,95,0.09,,,0.19,0,Wunderground v.1.15,2013-04-10 07:54:00,
2013-04-10 02:55:00,41.6,40.3,29.90,WNW,290,6.0,8.0,95,0.18,,,0.20,0,Wunderground v.1.15,2013-04-10 07:55:00,
2013-04-10 02:56:00,41.6,40.3,29.90,WNW,284,6.0,8.0,95,0.18,,,0.20,0,Wunderground v.1.15,2013-04-10 07:56:00,
2013-04-10 02:58:00,41.6,40.3,29.91,WNW,285,6.0,8.0,95,0.15,,,0.20,0,Wunderground v.1.15,2013-04-10 07:58:00,
2013-04-10 02:59:00,41.6,40.3,29.91,WNW,286,9.0,9.0,95,0.14,,,0.21,0,Wunderground v.1.15,2013-04-10 07:59:00,
2013-04-10 03:02:00,41.6,40.3,29.91,WNW,295,7.0,9.0,95,0.14,,,0.21,0,Wunderground v.1.15,2013-04-10 08:02:00,
2013-04-10 03:03:00,41.6,40.3,29.91,WNW,286,6.0,9.0,95,0.12,,,0.21,0,Wunderground v.1.15,2013-04-10 08:03:00,
2013-04-10 03:04:00,41.6,40.3,29.92,WNW,286,5.0,9.0,95,0.10,,,0.22,0,Wunderground v.1.15,2013-04-10 08:04:00,
2013-04-10 03:07:00,41.5,40.2,29.92,WNW,292,5.0,9.0,95,0.10,,,0.22,0,Wunderground v.1.15,2013-04-10 08:07:00,
2013-04-10 03:09:00,41.5,40.2,29.92,WNW,292,4.0,9.0,95,0.10,,,0.22,0,Wunderground v.1.15,2013-04-10 08:09:00,
2013-04-10 03:10:00,41.5,40.2,29.92,WNW,299,5.0,6.0,95,0.09,,,0.22,0,Wunderground v.1.15,2013-04-10 08:10:00,
2013-04-10 03:11:00,41.5,40.2,29.92,WNW,302,6.0,6.0,95,0.09,,,0.22,0,Wunderground v.1.15,2013-04-10 08:11:00,
2013-04-10 03:12:00,41.5,40.2,29.92,WNW,301,6.0,7.0,95,0.07,,,0.22,0,Wunderground v.1.15,2013-04-10 08:12:00,
2013-04-10 03:14:00,41.5,40.2,29.91,NW,311,6.0,7.0,95,0.06,,,0.22,0,Wunderground v.1.15,2013-04-10 08:14:00,
2013-04-10 03:16:00,41.5,40.2,29.91,NW,317,4.0,7.0,95,0.05,,,0.22,0,Wunderground v.1.15,2013-04-10 08:16:00,
2013-04-10 03:18:00,41.5,40.4,29.90,NW,313,6.0,7.0,96,0.04,,,0.22,0,Wunderground v.1.15,2013-04-10 08:18:00,
2013-04-10 03:19:00,41.5,40.4,29.90,NW,318,2.0,7.0,96,0.04,,,0.22,0,Wunderground v.1.15,2013-04-10 08:19:00,
2013-04-10 03:21:00,41.4,40.3,29.90,NW,319,0.0,6.0,96,0.00,,,0.22,0,Wunderground v.1.15,2013-04-10 08:21:00,
2013-04-10 03:22:00,41.4,40.3,29.89,NW,319,0.0,6.0,96,0.00,,,0.22,0,Wunderground v.1.15,2013-04-10 08:22:00,
2013-04-10 03:24:00,41.3,40.2,29.89,NW,319,0.0,6.0,96,0.00,,,0.23,0,Wunderground v.1.15,2013-04-10 08:24:00,
2013-04-10 03:27:00,41.3,40.2,29.88,NW,319,1.0,6.0,96,0.00,,,0.23,0,Wunderground v.1.15,2013-04-10 08:27:00,
2013-04-10 03:31:00,41.2,40.1,29.87,NNE,32,3.0,4.0,96,0.11,,,0.24,0,Wunderground v.1.15,2013-04-10 08:31:00,
2013-04-10 03:32:00,41.1,40.0,29.87,NE,40,4.0,4.0,96,0.11,,,0.24,0,Wunderground v.1.15,2013-04-10 08:32:00,
2013-04-10 03:34:00,41.1,40.0,29.87,North,360,4.0,5.0,96,0.15,,,0.25,0,Wunderground v.1.15,2013-04-10 08:34:00,
2013-04-10 03:37:00,41.0,39.9,29.87,North,9,1.0,8.0,96,0.17,,,0.26,0,Wunderground v.1.15,2013-04-10 08:37:00,
2013-04-10 03:39:00,41.0,39.9,29.86,NNE,18,2.0,8.0,96,0.17,,,0.26,0,Wunderground v.1.15,2013-04-10 08:39:00,
2013-04-10 03:40:00,41.0,39.9,29.86,NNE,33,5.0,5.0,96,0.17,,,0.27,0,Wunderground v.1.15,2013-04-10 08:40:00,
2013-04-10 03:42:00,40.9,39.8,29.85,NE,55,10.0,10.0,96,0.17,,,0.27,0,Wunderground v.1.15,2013-04-10 08:42:00,
2013-04-10 03:45:00,40.9,39.8,29.84,NE,45,5.0,10.0,96,0.15,,,0.28,0,Wunderground v.1.15,2013-04-10 08:45:00,
2013-04-10 03:46:00,40.9,39.8,29.84,ENE,64,5.0,10.0,96,0.15,,,0.28,0,Wunderground v.1.15,2013-04-10 08:46:00,
2013-04-10 03:47:00,40.8,39.7,29.83,NE,34,4.0,10.0,96,0.17,,,0.28,0,Wunderground v.1.15,2013-04-10 08:47:00,
2013-04-10 03:50:00,40.7,39.6,29.82,NE,49,7.0,11.0,96,0.17,,,0.29,0,Wunderground v.1.15,2013-04-10 08:50:00,
2013-04-10 03:51:00,40.7,39.6,29.81,ENE,63,5.0,11.0,96,0.15,,,0.29,0,Wunderground v.1.15,2013-04-10 08:51:00,
2013-04-10 03:53:00,40.7,39.6,29.80,NE,47,10.0,11.0,96,0.13,,,0.30,0,Wunderground v.1.15,2013-04-10 08:53:00,
2013-04-10 03:55:00,40.6,39.5,29.79,NE,41,14.0,14.0,96,0.13,,,0.30,0,Wunderground v.1.15,2013-04-10 08:55:00,
2013-04-10 03:56:00,40.6,39.5,29.78,ENE,64,14.0,15.0,96,0.13,,,0.30,0,Wunderground v.1.15,2013-04-10 08:56:00,
2013-04-10 03:57:00,40.5,39.4,29.77,NE,34,13.0,15.0,96,0.11,,,0.30,0,Wunderground v.1.15,2013-04-10 08:57:00,
2013-04-10 03:58:00,40.5,39.4,29.77,NE,56,7.0,15.0,96,0.11,,,0.31,0,Wunderground v.1.15,2013-04-10 08:58:00,
2013-04-10 04:02:00,40.4,39.4,29.75,NE,38,15.0,17.0,96,0.11,,,0.31,0,Wunderground v.1.15,2013-04-10 09:02:00,
2013-04-10 04:04:00,40.4,39.4,29.74,NNE,20,13.0,22.0,96,0.11,,,0.32,0,Wunderground v.1.15,2013-04-10 09:04:00,
2013-04-10 04:07:00,40.3,39.3,29.68,ENE,77,13.0,22.0,96,0.11,,,0.32,0,Wunderground v.1.15,2013-04-10 09:07:00,
2013-04-10 04:08:00,40.2,39.2,29.69,NE,51,14.0,22.0,96,0.11,,,0.32,0,Wunderground v.1.15,2013-04-10 09:08:00,
2013-04-10 04:09:00,40.2,39.2,29.70,North,5,8.0,22.0,96,0.10,,,0.32,0,Wunderground v.1.15,2013-04-10 09:09:00,
2013-04-10 04:13:00,40.2,39.2,29.72,ENE,68,17.0,22.0,96,0.07,,,0.33,0,Wunderground v.1.15,2013-04-10 09:13:00,
2013-04-10 04:15:00,40.2,39.2,29.72,NE,55,13.0,22.0,96,0.07,,,0.33,0,Wunderground v.1.15,2013-04-10 09:15:00,
2013-04-10 04:20:00,40.1,39.1,29.72,ENE,57,12.0,22.0,96,0.07,,,0.33,0,Wunderground v.1.15,2013-04-10 09:20:00,
2013-04-10 04:21:00,40.0,39.0,29.73,NNE,27,10.0,16.0,96,0.06,,,0.33,0,Wunderground v.1.15,2013-04-10 09:21:00,
2013-04-10 04:25:00,39.9,38.9,29.72,ENE,69,9.0,18.0,96,0.04,,,0.33,0,Wunderground v.1.15,2013-04-10 09:25:00,
2013-04-10 04:26:00,39.9,38.9,29.72,East,96,7.0,18.0,96,0.04,,,0.33,0,Wunderground v.1.15,2013-04-10 09:26:00,
2013-04-10 04:27:00,39.9,38.9,29.72,ENE,66,12.0,18.0,96,0.04,,,0.33,0,Wunderground v.1.15,2013-04-10 09:27:00,
2013-04-10 04:29:00,39.9,38.9,29.72,NE,56,14.0,18.0,96,0.00,,,0.33,0,Wunderground v.1.15,2013-04-10 09:29:00,
2013-04-10 04:32:00,39.8,38.8,29.72,ENE,76,13.0,20.0,96,0.00,,,0.33,0,Wunderground v.1.15,2013-04-10 09:32:00,
2013-04-10 04:33:00,39.9,38.9,29.73,ENE,65,10.0,20.0,96,0.00,,,0.33,0,Wunderground v.1.15,2013-04-10 09:33:00,
2013-04-10 04:35:00,39.8,38.8,29.73,East,94,10.0,20.0,96,0.00,,,0.33,0,Wunderground v.1.15,2013-04-10 09:35:00,
2013-04-10 04:37:00,39.8,38.8,29.73,ENE,63,14.0,21.0,96,0.00,,,0.33,0,Wunderground v.1.15,2013-04-10 09:37:00,
2013-04-10 04:39:00,39.8,38.8,29.73,NE,47,14.0,21.0,96,0.00,,,0.33,0,Wunderground v.1.15,2013-04-10 09:39:00,
2013-04-10 04:40:00,39.8,38.8,29.73,East,81,8.0,21.0,96,0.00,,,0.33,0,Wunderground v.1.15,2013-04-10 09:40:00,
2013-04-10 04:41:00,39.8,38.8,29.73,East,94,8.0,12.0,96,0.00,,,0.33,0,Wunderground v.1.15,2013-04-10 09:41:00,
2013-04-10 04:44:00,39.8,38.8,29.73,NE,49,7.0,17.0,96,0.00,,,0.33,0,Wunderground v.1.15,2013-04-10 09:44:00,
2013-04-10 04:46:00,39.7,38.7,29.72,NE,55,13.0,17.0,96,0.00,,,0.33,0,Wunderground v.1.15,2013-04-10 09:46:00,
2013-04-10 04:47:00,39.7,38.7,29.72,NE,51,11.0,17.0,96,0.00,,,0.33,0,Wunderground v.1.15,2013-04-10 09:47:00,
2013-04-10 04:51:00,39.7,38.7,29.73,ENE,67,9.0,11.0,96,0.00,,,0.33,0,Wunderground v.1.15,2013-04-10 09:51:00,
2013-04-10 04:52:00,39.7,38.7,29.73,NE,34,14.0,14.0,96,0.00,,,0.33,0,Wunderground v.1.15,2013-04-10 09:52:00,
2013-04-10 04:53:00,39.7,38.7,29.73,ENE,64,9.0,14.0,96,0.00,,,0.33,0,Wunderground v.1.15,2013-04-10 09:53:00,
2013-04-10 04:57:00,39.6,38.6,29.72,East,83,13.0,19.0,96,0.00,,,0.33,0,Wunderground v.1.15,2013-04-10 09:57:00,
2013-04-10 04:59:00,39.6,38.6,29.72,East,86,16.0,19.0,96,0.00,,,0.33,0,Wunderground v.1.15,2013-04-10 09:59:00,
2013-04-10 05:02:00,39.6,38.3,29.72,NE,42,7.0,19.0,95,0.00,,,0.33,0,Wunderground v.1.15,2013-04-10 10:02:00,
2013-04-10 05:04:00,39.6,38.3,29.71,NE,53,13.0,19.0,95,0.00,,,0.33,0,Wunderground v.1.15,2013-04-10 10:04:00,
2013-04-10 05:05:00,39.5,38.2,29.71,NE,54,9.0,19.0,95,0.00,,,0.33,0,Wunderground v.1.15,2013-04-10 10:05:00,
2013-04-10 05:06:00,39.5,38.2,29.71,ENE,59,7.0,19.0,95,0.00,,,0.33,0,Wunderground v.1.15,2013-04-10 10:06:00,
2013-04-10 05:09:00,39.4,38.1,29.69,NE,51,8.0,19.0,95,0.00,,,0.33,0,Wunderground v.1.15,2013-04-10 10:09:00,
2013-04-10 05:12:00,39.4,38.1,29.69,NE,40,7.0,14.0,95,0.00,,,0.33,0,Wunderground v.1.15,2013-04-10 10:12:00,
2013-04-10 05:15:00,39.3,38.0,29.69,East,85,10.0,18.0,95,0.00,,,0.33,0,Wunderground v.1.15,2013-04-10 10:15:00,
2013-04-10 05:17:00,39.2,37.9,29.68,ENE,66,11.0,18.0,95,0.00,,,0.33,0,Wunderground v.1.15,2013-04-10 10:17:00,
2013-04-10 05:18:00,39.2,37.9,29.68,ENE,68,8.0,18.0,95,0.00,,,0.33,0,Wunderground v.1.15,2013-04-10 10:18:00,
2013-04-10 05:22:00,39.1,37.8,29.69,NE,39,4.0,15.0,95,0.00,,,0.33,0,Wunderground v.1.15,2013-04-10 10:22:00,
2013-04-10 05:23:00,39.1,37.8,29.69,NNE,16,8.0,15.0,95,0.00,,,0.33,0,Wunderground v.1.15,2013-04-10 10:23:00,
2013-04-10 05:24:00,39.1,37.8,29.69,NE,36,13.0,15.0,95,0.00,,,0.33,0,Wunderground v.1.15,2013-04-10 10:24:00,
2013-04-10 05:28:00,39.1,37.8,29.70,NE,44,11.0,15.0,95,0.00,,,0.33,0,Wunderground v.1.15,2013-04-10 10:28:00,
2013-04-10 05:29:00,39.1,37.8,29.69,East,79,11.0,15.0,95,0.00,,,0.33,0,Wunderground v.1.15,2013-04-10 10:29:00,
2013-04-10 05:32:00,39.1,37.8,29.69,East,94,8.0,14.0,95,0.00,,,0.33,0,Wunderground v.1.15,2013-04-10 10:32:00,
2013-04-10 05:34:00,39.1,37.8,29.69,NE,36,5.0,14.0,95,0.00,,,0.33,0,Wunderground v.1.15,2013-04-10 10:34:00,
2013-04-10 05:36:00,39.1,37.8,29.72,NNW,343,11.0,14.0,95,0.00,,,0.33,0,Wunderground v.1.15,2013-04-10 10:36:00,
2013-04-10 05:37:00,39.1,37.8,29.74,NNW,334,7.0,14.0,95,0.00,,,0.33,0,Wunderground v.1.15,2013-04-10 10:37:00,
2013-04-10 05:39:00,39.1,37.8,29.75,NW,325,4.0,14.0,95,0.00,,,0.33,0,Wunderground v.1.15,2013-04-10 10:39:00,
2013-04-10 05:40:00,39.1,37.8,29.75,WNW,294,5.0,14.0,95,0.00,,,0.33,0,Wunderground v.1.15,2013-04-10 10:40:00,
2013-04-10 05:43:00,39.1,37.8,29.76,NE,41,6.0,7.0,95,0.00,,,0.33,0,Wunderground v.1.15,2013-04-10 10:43:00,
2013-04-10 05:44:00,39.1,37.8,29.76,NW,305,2.0,7.0,95,0.00,,,0.33,0,Wunderground v.1.15,2013-04-10 10:44:00,
2013-04-10 05:45:00,39.1,37.8,29.76,North,5,1.0,7.0,95,0.00,,,0.33,0,Wunderground v.1.15,2013-04-10 10:45:00,
2013-04-10 05:46:00,39.2,37.9,29.76,NNW,340,4.0,7.0,95,0.00,,,0.33,0,Wunderground v.1.15,2013-04-10 10:46:00,
2013-04-10 05:49:00,39.2,37.9,29.75,NE,37,3.0,10.0,95,0.00,,,0.33,0,Wunderground v.1.15,2013-04-10 10:49:00,
2013-04-10 05:50:00,39.2,37.9,29.75,NE,45,5.0,5.0,95,0.00,,,0.33,0,Wunderground v.1.15,2013-04-10 10:50:00,
2013-04-10 05:51:00,39.2,37.9,29.75,NE,48,4.0,8.0,95,0.00,,,0.33,0,Wunderground v.1.15,2013-04-10 10:51:00,
2013-04-10 05:52:00,39.2,37.9,29.76,NNE,32,4.0,8.0,95,0.00,,,0.33,0,Wunderground v.1.15,2013-04-10 10:52:00,
2013-04-10 05:57:00,39.2,37.6,29.76,NNW,346,2.0,8.0,94,0.00,,,0.33,0,Wunderground v.1.15,2013-04-10 10:57:00,
2013-04-10 05:58:00,39.2,37.6,29.76,NNE,19,4.0,8.0,94,0.00,,,0.33,0,Wunderground v.1.15,2013-04-10 10:58:00,
2013-04-10 05:59:00,39.2,37.6,29.76,NE,36,1.0,8.0,94,0.00,,,0.33,0,Wunderground v.1.15,2013-04-10 10:59:00,
2013-04-10 06:03:00,39.2,37.6,29.77,NNW,333,2.0,5.0,94,0.00,,,0.33,0,Wunderground v.1.15,2013-04-10 11:03:00,
2013-04-10 06:04:00,39.2,37.6,29.77,North,5,4.0,5.0,94,0.00,,,0.33,0,Wunderground v.1.15,2013-04-10 11:04:00,
2013-04-10 06:08:00,39.2,37.6,29.77,NNE,24,4.0,6.0,94,0.00,,,0.33,0,Wunderground v.1.15,2013-04-10 11:08:00,
2013-04-10 06:09:00,39.2,37.6,29.77,NNE,24,3.0,6.0,94,0.00,,,0.33,0,Wunderground v.1.15,2013-04-10 11:09:00,
2013-04-10 06:10:00,39.2,37.6,29.78,NE,36,3.0,3.0,94,0.00,,,0.33,0,Wunderground v.1.15,2013-04-10 11:10:00,
2013-04-10 06:14:00,39.2,37.6,29.78,North,10,4.0,6.0,94,0.00,,,0.33,0,Wunderground v.1.15,2013-04-10 11:14:00,
2013-04-10 06:15:00,39.2,37.6,29.78,North,5,0.0,6.0,94,0.00,,,0.33,0,Wunderground v.1.15,2013-04-10 11:15:00,
2013-04-10 06:16:00,39.2,37.6,29.79,NE,53,1.0,6.0,94,0.00,,,0.33,0,Wunderground v.1.15,2013-04-10 11:16:00,
2013-04-10 06:20:00,39.3,37.7,29.81,NE,54,0.0,6.0,94,0.00,,,0.33,0,Wunderground v.1.15,2013-04-10 11:20:00,
2013-04-10 06:21:00,39.3,37.7,29.82,NE,54,1.0,2.0,94,0.00,,,0.33,0,Wunderground v.1.15,2013-04-10 11:21:00,
2013-04-10 06:25:00,39.3,37.7,29.83,NE,54,0.0,2.0,94,0.00,,,0.33,0,Wunderground v.1.15,2013-04-10 11:25:00,
2013-04-10 06:26:00,39.4,37.8,29.83,NE,54,1.0,2.0,94,0.00,,,0.33,0,Wunderground v.1.15,2013-04-10 11:26:00,
2013-04-10 06:27:00,39.4,37.8,29.84,NE,54,1.0,2.0,94,0.00,,,0.33,0,Wunderground v.1.15,2013-04-10 11:27:00,
2013-04-10 06:31:00,39.5,37.9,29.85,NE,54,0.0,0.0,94,0.00,,,0.33,0,Wunderground v.1.15,2013-04-10 11:31:00,
2013-04-10 06:32:00,39.5,37.9,29.85,NE,54,0.0,0.0,94,0.00,,,0.33,0,Wunderground v.1.15,2013-04-10 11:32:00,
2013-04-10 06:33:00,39.5,37.9,29.85,NE,54,0.0,0.0,94,0.00,,,0.33,0,Wunderground v.1.15,2013-04-10 11:33:00,
2013-04-10 06:37:00,39.6,38.0,29.86,NE,54,0.0,0.0,94,0.00,,,0.33,0,Wunderground v.1.15,2013-04-10 11:37:00,
2013-04-10 06:39:00,39.7,38.1,29.87,ENE,76,3.0,3.0,94,0.00,,,0.33,0,Wunderground v.1.15,2013-04-10 11:39:00,
2013-04-10 06:40:00,39.7,38.1,29.87,ENE,76,3.0,3.0,94,0.00,,,0.33,0,Wunderground v.1.15,2013-04-10 11:40:00,
2013-04-10 06:43:00,39.7,38.1,29.88,ENE,76,1.0,3.0,94,0.00,,,0.34,0,Wunderground v.1.15,2013-04-10 11:43:00,
2013-04-10 06:45:00,39.7,38.1,29.89,East,93,2.0,3.0,94,0.00,,,0.34,0,Wunderground v.1.15,2013-04-10 11:45:00,
2013-04-10 06:49:00,39.8,38.2,29.89,East,93,1.0,3.0,94,0.15,,,0.35,0,Wunderground v.1.15,2013-04-10 11:49:00,
2013-04-10 06:51:00,39.8,38.2,29.89,East,93,0.0,2.0,94,0.15,,,0.36,0,Wunderground v.1.15,2013-04-10 11:51:00,
2013-04-10 06:54:00,39.7,38.1,29.88,East,93,2.0,2.0,94,0.12,,,0.37,0,Wunderground v.1.15,2013-04-10 11:54:00,
2013-04-10 06:57:00,39.6,38.0,29.87,East,93,2.0,2.0,94,0.12,,,0.37,0,Wunderground v.1.15,2013-04-10 11:57:00,
2013-04-10 06:59:00,39.6,38.0,29.87,East,84,2.0,3.0,94,0.11,,,0.37,0,Wunderground v.1.15,2013-04-10 11:59:00,
2013-04-10 07:00:00,39.6,38.0,29.87,East,84,2.0,3.0,94,0.10,,,0.37,0,Wunderground v.1.15,2013-04-10 12:00:00,
2013-04-10 07:02:00,39.5,37.9,29.86,ENE,78,2.0,5.0,94,0.08,,,0.38,0,Wunderground v.1.15,2013-04-10 12:02:00,
2013-04-10 07:03:00,39.5,37.9,29.86,ENE,65,2.0,5.0,94,0.08,,,0.38,0,Wunderground v.1.15,2013-04-10 12:03:00,
2013-04-10 07:05:00,39.5,37.9,29.85,ENE,65,3.0,5.0,94,0.08,,,0.38,0,Wunderground v.1.15,2013-04-10 12:05:00,
2013-04-10 07:07:00,39.5,37.9,29.84,NE,55,6.0,6.0,94,0.11,,,0.38,0,Wunderground v.1.15,2013-04-10 12:07:00,
2013-04-10 07:12:00,39.3,38.0,29.81,NE,46,6.0,9.0,95,0.11,,,0.39,5,Wunderground v.1.15,2013-04-10 12:12:00,
2013-04-10 07:13:00,39.3,37.7,29.81,NE,38,4.0,9.0,94,0.09,,,0.39,5,Wunderground v.1.15,2013-04-10 12:13:00,
2013-04-10 07:18:00,39.3,38.0,29.83,NE,47,5.0,9.0,95,0.05,,,0.39,11,Wunderground v.1.15,2013-04-10 12:18:00,
2013-04-10 07:19:00,39.3,38.0,29.83,NE,55,3.0,9.0,95,0.05,,,0.39,12,Wunderground v.1.15,2013-04-10 12:19:00,
2013-04-10 07:21:00,39.3,38.0,29.83,NE,53,6.0,7.0,95,0.04,,,0.39,12,Wunderground v.1.15,2013-04-10 12:21:00,
2013-04-10 07:23:00,39.3,38.0,29.83,ENE,59,2.0,7.0,95,0.04,,,0.40,12,Wunderground v.1.15,2013-04-10 12:23:00,
2013-04-10 07:24:00,39.2,37.9,29.83,NE,52,3.0,7.0,95,0.04,,,0.40,12,Wunderground v.1.15,2013-04-10 12:24:00,
2013-04-10 07:27:00,39.2,37.9,29.85,NE,49,6.0,7.0,95,0.04,,,0.40,12,Wunderground v.1.15,2013-04-10 12:27:00,
2013-04-10 07:29:00,39.2,37.9,29.85,ENE,62,2.0,7.0,95,0.04,,,0.40,12,Wunderground v.1.15,2013-04-10 12:29:00,
2013-04-10 07:30:00,39.2,37.9,29.85,ENE,65,5.0,5.0,95,0.04,,,0.40,14,Wunderground v.1.15,2013-04-10 12:30:00,
2013-04-10 07:32:00,39.2,37.9,29.85,NE,42,2.0,7.0,95,0.04,,,0.40,16,Wunderground v.1.15,2013-04-10 12:32:00,
2013-04-10 07:34:00,39.2,37.9,29.84,ENE,60,5.0,7.0,95,0.04,,,0.40,19,Wunderground v.1.15,2013-04-10 12:34:00,
2013-04-10 07:35:00,39.2,37.9,29.84,NNE,28,5.0,8.0,95,0.04,,,0.40,21,Wunderground v.1.15,2013-04-10 12:35:00,
2013-04-10 07:37:00,39.3,38.0,29.84,NNE,31,4.0,8.0,95,0.04,,,0.40,23,Wunderground v.1.15,2013-04-10 12:37:00,
2013-04-10 07:39:00,39.3,38.0,29.83,NE,34,3.0,8.0,95,0.04,,,0.40,26,Wunderground v.1.15,2013-04-10 12:39:00,
2013-04-10 07:42:00,39.3,38.0,29.83,NNE,14,5.0,5.0,95,0.00,,,0.40,28,Wunderground v.1.15,2013-04-10 12:42:00,
2013-04-10 07:43:00,39.3,38.0,29.83,NNE,26,4.0,5.0,95,0.00,,,0.40,28,Wunderground v.1.15,2013-04-10 12:43:00,
2013-04-10 07:44:00,39.3,38.0,29.83,NE,47,5.0,6.0,95,0.00,,,0.40,30,Wunderground v.1.15,2013-04-10 12:44:00,
2013-04-10 07:48:00,39.3,38.0,29.83,NE,41,2.0,6.0,95,0.00,,,0.40,37,Wunderground v.1.15,2013-04-10 12:48:00,
2013-04-10 07:50:00,39.3,38.0,29.83,East,80,7.0,7.0,95,0.00,,,0.40,37,Wunderground v.1.15,2013-04-10 12:50:00,
2013-04-10 07:52:00,39.3,38.0,29.83,ENE,76,9.0,9.0,95,0.00,,,0.40,42,Wunderground v.1.15,2013-04-10 12:52:00,
2013-04-10 07:54:00,39.2,37.9,29.83,NE,39,6.0,9.0,95,0.00,,,0.40,42,Wunderground v.1.15,2013-04-10 12:54:00,
2013-04-10 07:55:00,39.2,37.9,29.83,NE,46,3.0,9.0,95,0.00,,,0.40,39,Wunderground v.1.15,2013-04-10 12:55:00,
2013-04-10 07:57:00,39.2,37.9,29.82,ENE,58,4.0,9.0,95,0.00,,,0.40,40,Wunderground v.1.15,2013-04-10 12:57:00,
2013-04-10 08:02:00,39.2,37.9,29.81,NE,55,5.0,11.0,95,0.00,,,0.40,37,Wunderground v.1.15,2013-04-10 13:02:00,
2013-04-10 08:03:00,39.2,37.9,29.81,NNE,15,4.0,11.0,95,0.00,,,0.40,37,Wunderground v.1.15,2013-04-10 13:03:00,
2013-04-10 08:07:00,39.1,37.8,29.81,NE,50,5.0,11.0,95,0.00,,,0.40,37,Wunderground v.1.15,2013-04-10 13:07:00,
2013-04-10 08:08:00,39.2,37.9,29.81,NE,42,7.0,11.0,95,0.00,,,0.40,37,Wunderground v.1.15,2013-04-10 13:08:00,
2013-04-10 08:11:00,39.1,37.8,29.81,NE,40,6.0,7.0,95,0.00,,,0.40,32,Wunderground v.1.15,2013-04-10 13:11:00,
2013-04-10 08:13:00,39.1,37.8,29.81,NNE,26,6.0,7.0,95,0.00,,,0.40,30,Wunderground v.1.15,2013-04-10 13:13:00,
2013-04-10 08:14:00,39.1,38.1,29.81,NE,40,2.0,7.0,96,0.00,,,0.40,28,Wunderground v.1.15,2013-04-10 13:14:00,
2013-04-10 08:17:00,39.1,38.1,29.81,NE,47,5.0,8.0,96,0.00,,,0.40,32,Wunderground v.1.15,2013-04-10 13:17:00,
2013-04-10 08:18:00,39.1,38.1,29.82,NNE,30,6.0,8.0,96,0.00,,,0.40,32,Wunderground v.1.15,2013-04-10 13:18:00,
2013-04-10 08:19:00,39.1,38.1,29.82,ENE,57,5.0,9.0,96,0.00,,,0.40,32,Wunderground v.1.15,2013-04-10 13:19:00,
2013-04-10 08:20:00,39.1,38.1,29.82,NE,50,6.0,6.0,96,0.00,,,0.40,32,Wunderground v.1.15,2013-04-10 13:20:00,
2013-04-10 08:23:00,39.0,38.0,29.82,NE,39,5.0,6.0,96,0.00,,,0.40,28,Wunderground v.1.15,2013-04-10 13:23:00,
2013-04-10 08:25:00,39.0,38.0,29.82,NNE,12,4.0,9.0,96,0.00,,,0.40,25,Wunderground v.1.15,2013-04-10 13:25:00,
2013-04-10 08:26:00,39.0,38.0,29.82,NNE,32,7.0,9.0,96,0.00,,,0.40,25,Wunderground v.1.15,2013-04-10 13:26:00,
2013-04-10 08:29:00,39.0,38.0,29.83,NNE,32,5.0,9.0,96,0.00,,,0.40,23,Wunderground v.1.15,2013-04-10 13:29:00,
2013-04-10 08:31:00,39.0,38.0,29.84,NNE,33,3.0,5.0,96,0.00,,,0.40,21,Wunderground v.1.15,2013-04-10 13:31:00,
2013-04-10 08:32:00,39.0,38.0,29.84,NNE,22,2.0,5.0,96,0.00,,,0.40,21,Wunderground v.1.15,2013-04-10 13:32:00,
2013-04-10 08:35:00,39.0,38.0,29.86,NNE,20,0.0,5.0,96,0.00,,,0.40,19,Wunderground v.1.15,2013-04-10 13:35:00,
2013-04-10 08:38:00,38.9,37.9,29.87,NNE,20,1.0,5.0,96,0.00,,,0.40,19,Wunderground v.1.15,2013-04-10 13:38:00,
2013-04-10 08:39:00,39.0,38.0,29.88,NNE,20,0.0,5.0,96,0.00,,,0.40,18,Wunderground v.1.15,2013-04-10 13:39:00,
2013-04-10 08:40:00,38.9,37.9,29.88,NNE,24,2.0,4.0,96,0.00,,,0.40,16,Wunderground v.1.15,2013-04-10 13:40:00,
2013-04-10 08:42:00,39.0,38.0,29.88,NNE,26,1.0,4.0,96,0.00,,,0.40,16,Wunderground v.1.15,2013-04-10 13:42:00,
2013-04-10 08:43:00,39.0,38.0,29.88,NNE,26,2.0,4.0,96,0.00,,,0.40,16,Wunderground v.1.15,2013-04-10 13:43:00,
2013-04-10 08:45:00,39.0,38.0,29.88,NNE,26,4.0,4.0,96,0.00,,,0.40,19,Wunderground v.1.15,2013-04-10 13:45:00,
2013-04-10 08:52:00,39.1,38.1,29.86,North,5,2.0,3.0,96,0.00,,,0.41,26,Wunderground v.1.15,2013-04-10 13:52:00,
2013-04-10 08:53:00,39.1,38.1,29.86,NNE,13,4.0,5.0,96,0.00,,,0.41,25,Wunderground v.1.15,2013-04-10 13:53:00,
2013-04-10 08:54:00,39.1,37.8,29.85,NNE,31,6.0,6.0,95,0.00,,,0.41,25,Wunderground v.1.15,2013-04-10 13:54:00,
2013-04-10 08:58:00,39.1,38.1,29.86,NNE,33,3.0,6.0,96,0.10,,,0.42,25,Wunderground v.1.15,2013-04-10 13:58:00,
2013-04-10 08:59:00,39.1,37.8,29.86,NNE,13,3.0,6.0,95,0.10,,,0.42,21,Wunderground v.1.15,2013-04-10 13:59:00,
2013-04-10 09:00:00,39.1,38.1,29.86,North,5,2.0,6.0,96,0.10,,,0.42,21,Wunderground v.1.15,2013-04-10 14:00:00,
2013-04-10 09:02:00,39.0,38.0,29.86,North,355,5.0,5.0,96,0.09,,,0.42,21,Wunderground v.1.15,2013-04-10 14:02:00,
2013-04-10 09:03:00,39.0,38.0,29.86,North,5,4.0,5.0,96,0.07,,,0.42,23,Wunderground v.1.15,2013-04-10 14:03:00,
2013-04-10 09:05:00,39.0,38.0,29.86,NNE,18,2.0,5.0,96,0.06,,,0.42,25,Wunderground v.1.15,2013-04-10 14:05:00,
2013-04-10 09:08:00,39.0,38.0,29.85,NNE,15,3.0,7.0,96,0.06,,,0.43,30,Wunderground v.1.15,2013-04-10 14:08:00,
2013-04-10 09:09:00,39.0,38.0,29.85,North,360,2.0,7.0,96,0.06,,,0.43,32,Wunderground v.1.15,2013-04-10 14:09:00,
2013-04-10 09:10:00,39.0,38.0,29.85,NNE,32,3.0,4.0,96,0.06,,,0.43,32,Wunderground v.1.15,2013-04-10 14:10:00,
2013-04-10 09:14:00,39.0,38.0,29.85,NNE,13,5.0,7.0,96,0.06,,,0.43,39,Wunderground v.1.15,2013-04-10 14:14:00,
2013-04-10 09:15:00,39.0,38.0,29.85,North,360,4.0,7.0,96,0.06,,,0.43,39,Wunderground v.1.15,2013-04-10 14:15:00,
2013-04-10 09:18:00,39.0,38.0,29.85,NE,56,8.0,8.0,96,0.05,,,0.43,42,Wunderground v.1.15,2013-04-10 14:18:00,
2013-04-10 09:19:00,39.0,38.0,29.85,NE,36,6.0,8.0,96,0.04,,,0.43,49,Wunderground v.1.15,2013-04-10 14:19:00,
2013-04-10 09:20:00,38.9,37.9,29.84,NE,38,3.0,5.0,96,0.04,,,0.43,51,Wunderground v.1.15,2013-04-10 14:20:00,
2013-04-10 09:22:00,38.9,37.9,29.84,NE,44,4.0,7.0,96,0.04,,,0.43,53,Wunderground v.1.15,2013-04-10 14:22:00,
2013-04-10 09:23:00,38.9,37.9,29.83,NE,40,6.0,7.0,96,0.00,,,0.43,53,Wunderground v.1.15,2013-04-10 14:23:00,
2013-04-10 09:25:00,38.9,37.9,29.84,ENE,60,7.0,7.0,96,0.00,,,0.43,49,Wunderground v.1.15,2013-04-10 14:25:00,
2013-04-10 09:28:00,38.9,37.9,29.84,NE,35,5.0,7.0,96,0.00,,,0.44,47,Wunderground v.1.15,2013-04-10 14:28:00,
2013-04-10 09:29:00,38.9,37.9,29.84,NE,55,3.0,7.0,96,0.00,,,0.44,46,Wunderground v.1.15,2013-04-10 14:29:00,
2013-04-10 09:30:00,39.0,38.0,29.84,NE,49,4.0,5.0,96,0.00,,,0.44,44,Wunderground v.1.15,2013-04-10 14:30:00,
2013-04-10 09:33:00,39.0,38.0,29.85,ENE,57,5.0,5.0,96,0.00,,,0.44,44,Wunderground v.1.15,2013-04-10 14:33:00,
2013-04-10 09:34:00,39.0,38.0,29.85,NE,52,3.0,5.0,96,0.00,,,0.44,42,Wunderground v.1.15,2013-04-10 14:34:00,
2013-04-10 09:37:00,39.0,38.0,29.85,NE,53,3.0,6.0,96,0.00,,,0.44,47,Wunderground v.1.15,2013-04-10 14:37:00,
2013-04-10 09:39:00,39.0,38.0,29.86,NNE,29,4.0,7.0,96,0.00,,,0.44,46,Wunderground v.1.15,2013-04-10 14:39:00,
2013-04-10 09:40:00,38.9,37.9,29.86,NNE,30,5.0,5.0,96,0.00,,,0.44,44,Wunderground v.1.15,2013-04-10 14:40:00,
2013-04-10 09:42:00,38.9,37.9,29.87,NNE,30,3.0,5.0,96,0.04,,,0.44,51,Wunderground v.1.15,2013-04-10 14:42:00,
2013-04-10 09:43:00,38.9,37.9,29.87,NE,39,3.0,5.0,96,0.04,,,0.45,51,Wunderground v.1.15,2013-04-10 14:43:00,
2013-04-10 09:45:00,39.0,38.0,29.88,NE,38,3.0,5.0,96,0.04,,,0.45,42,Wunderground v.1.15,2013-04-10 14:45:00,
2013-04-10 09:47:00,39.1,38.1,29.88,NE,39,3.0,5.0,96,0.04,,,0.45,44,Wunderground v.1.15,2013-04-10 14:47:00,
2013-04-10 09:48:00,39.0,38.0,29.88,NE,44,2.0,5.0,96,0.04,,,0.45,44,Wunderground v.1.15,2013-04-10 14:48:00,
2013-04-10 09:50:00,39.0,38.0,29.88,ENE,69,4.0,4.0,96,0.04,,,0.45,44,Wunderground v.1.15,2013-04-10 14:50:00,
2013-04-10 09:51:00,39.0,38.0,29.88,NE,38,2.0,5.0,96,0.04,,,0.45,51,Wunderground v.1.15,2013-04-10 14:51:00,
2013-04-10 09:54:00,39.1,38.1,29.88,NE,39,2.0,5.0,96,0.04,,,0.45,67,Wunderground v.1.15,2013-04-10 14:54:00,
2013-04-10 09:55:00,39.1,38.1,29.87,NE,42,2.0,5.0,96,0.04,,,0.45,67,Wunderground v.1.15,2013-04-10 14:55:00,
2013-04-10 09:56:00,39.2,38.2,29.87,NE,42,3.0,5.0,96,0.04,,,0.46,88,Wunderground v.1.15,2013-04-10 14:56:00,
2013-04-10 09:57:00,39.2,38.2,29.87,NE,42,3.0,5.0,96,0.04,,,0.46,88,Wunderground v.1.15,2013-04-10 14:57:00,
2013-04-10 09:59:00,39.3,38.3,29.86,NE,36,5.0,5.0,96,0.04,,,0.46,93,Wunderground v.1.15,2013-04-10 14:59:00,
2013-04-10 10:02:00,39.3,38.3,29.86,ENE,65,3.0,5.0,96,0.04,,,0.46,105,Wunderground v.1.15,2013-04-10 15:02:00,
2013-04-10 10:04:00,39.3,38.3,29.86,NE,36,5.0,6.0,96,0.04,,,0.46,100,Wunderground v.1.15,2013-04-10 15:04:00,
2013-04-10 10:07:00,39.4,38.4,29.85,ENE,59,4.0,9.0,96,0.04,,,0.46,79,Wunderground v.1.15,2013-04-10 15:07:00,
2013-04-10 10:08:00,39.5,38.5,29.85,NE,53,3.0,9.0,96,0.04,,,0.46,77,Wunderground v.1.15,2013-04-10 15:08:00,
2013-04-10 10:09:00,39.5,38.5,29.86,ENE,58,4.0,9.0,96,0.04,,,0.46,84,Wunderground v.1.15,2013-04-10 15:09:00,
2013-04-10 10:10:00,39.4,38.4,29.86,NNE,13,3.0,4.0,96,0.04,,,0.46,74,Wunderground v.1.15,2013-04-10 15:10:00,
2013-04-10 10:14:00,39.3,38.3,29.85,ENE,61,3.0,8.0,96,0.00,,,0.46,121,Wunderground v.1.15,2013-04-10 15:14:00,
2013-04-10 10:15:00,39.3,38.3,29.85,NE,50,4.0,8.0,96,0.00,,,0.46,121,Wunderground v.1.15,2013-04-10 15:15:00,
2013-04-10 10:17:00,39.3,38.3,29.85,East,89,7.0,8.0,96,0.00,,,0.46,128,Wunderground v.1.15,2013-04-10 15:17:00,
2013-04-10 10:19:00,39.3,38.3,29.85,NNE,27,6.0,10.0,96,0.00,,,0.46,135,Wunderground v.1.15,2013-04-10 15:19:00,
2013-04-10 10:20:00,39.3,38.3,29.85,NNE,32,5.0,7.0,96,0.00,,,0.46,121,Wunderground v.1.15,2013-04-10 15:20:00,
2013-04-10 10:22:00,39.3,38.3,29.85,NE,36,4.0,7.0,96,0.00,,,0.46,141,Wunderground v.1.15,2013-04-10 15:22:00,
2013-04-10 10:24:00,39.3,38.3,29.84,ENE,57,4.0,7.0,96,0.00,,,0.46,155,Wunderground v.1.15,2013-04-10 15:24:00,
2013-04-10 10:27:00,39.4,38.4,29.84,NE,49,4.0,8.0,96,0.00,,,0.46,134,Wunderground v.1.15,2013-04-10 15:27:00,
2013-04-10 10:29:00,39.4,38.4,29.85,NNE,17,5.0,8.0,96,0.00,,,0.46,146,Wunderground v.1.15,2013-04-10 15:29:00,
2013-04-10 10:30:00,39.4,38.4,29.85,NE,53,6.0,10.0,96,0.00,,,0.46,130,Wunderground v.1.15,2013-04-10 15:30:00,
2013-04-10 10:32:00,39.4,38.4,29.86,NNE,19,5.0,10.0,96,0.00,,,0.46,113,Wunderground v.1.15,2013-04-10 15:32:00,
2013-04-10 10:35:00,39.3,38.0,29.85,North,11,5.0,10.0,95,0.00,,,0.46,105,Wunderground v.1.15,2013-04-10 15:35:00,
2013-04-10 10:37:00,39.4,38.1,29.85,NNE,32,6.0,10.0,95,0.00,,,0.46,95,Wunderground v.1.15,2013-04-10 15:37:00,
2013-04-10 10:39:00,39.3,38.0,29.85,NNE,33,7.0,10.0,95,0.00,,,0.46,79,Wunderground v.1.15,2013-04-10 15:39:00,
2013-04-10 10:40:00,39.3,38.0,29.85,NE,49,5.0,5.0,95,0.00,,,0.46,77,Wunderground v.1.15,2013-04-10 15:40:00,
2013-04-10 10:42:00,39.3,38.0,29.85,NE,46,6.0,6.0,95,0.00,,,0.46,67,Wunderground v.1.15,2013-04-10 15:42:00,
2013-04-10 10:45:00,39.2,37.9,29.86,NE,50,7.0,7.0,95,0.00,,,0.46,69,Wunderground v.1.15,2013-04-10 15:45:00,
2013-04-10 10:46:00,39.2,37.9,29.86,NNE,13,4.0,8.0,95,0.00,,,0.46,69,Wunderground v.1.15,2013-04-10 15:46:00,
2013-04-10 10:47:00,39.1,37.8,29.86,NE,56,7.0,8.0,95,0.00,,,0.46,63,Wunderground v.1.15,2013-04-10 15:47:00,
2013-04-10 10:48:00,39.1,37.8,29.86,NE,42,5.0,8.0,95,0.00,,,0.46,72,Wunderground v.1.15,2013-04-10 15:48:00,
2013-04-10 10:50:00,39.1,37.8,29.85,NE,53,6.0,6.0,95,0.00,,,0.46,77,Wunderground v.1.15,2013-04-10 15:50:00,
2013-04-10 10:51:00,39.1,37.8,29.86,NE,50,5.0,6.0,95,0.00,,,0.46,77,Wunderground v.1.15,2013-04-10 15:51:00,
2013-04-10 10:53:00,39.1,37.8,29.85,ENE,63,7.0,7.0,95,0.00,,,0.46,70,Wunderground v.1.15,2013-04-10 15:53:00,
2013-04-10 10:57:00,39.0,37.7,29.86,ENE,76,7.0,11.0,95,0.00,,,0.46,72,Wunderground v.1.15,2013-04-10 15:57:00,
2013-04-10 10:58:00,39.0,37.7,29.86,NE,45,10.0,11.0,95,0.00,,,0.46,79,Wunderground v.1.15,2013-04-10 15:58:00,
2013-04-10 10:59:00,39.0,37.7,29.86,East,82,7.0,11.0,95,0.00,,,0.46,83,Wunderground v.1.15,2013-04-10 15:59:00,
2013-04-10 11:03:00,39.0,37.7,29.86,East,82,5.0,8.0,95,0.00,,,0.46,107,Wunderground v.1.15,2013-04-10 16:03:00,
2013-04-10 11:04:00,39.0,37.7,29.86,ENE,73,4.0,8.0,95,0.00,,,0.46,109,Wunderground v.1.15,2013-04-10 16:04:00,
2013-04-10 11:05:00,39.0,37.7,29.86,NE,36,8.0,10.0,95,0.00,,,0.46,109,Wunderground v.1.15,2013-04-10 16:05:00,
2013-04-10 11:07:00,39.1,37.8,29.86,NE,55,10.0,10.0,95,0.00,,,0.46,111,Wunderground v.1.15,2013-04-10 16:07:00,
2013-04-10 11:09:00,39.1,37.8,29.86,ENE,60,4.0,10.0,95,0.00,,,0.46,120,Wunderground v.1.15,2013-04-10 16:09:00,
2013-04-10 11:10:00,39.1,37.8,29.86,ENE,65,4.0,7.0,95,0.00,,,0.46,123,Wunderground v.1.15,2013-04-10 16:10:00,
2013-04-10 11:12:00,39.2,37.9,29.85,NE,36,7.0,8.0,95,0.00,,,0.46,121,Wunderground v.1.15,2013-04-10 16:12:00,
2013-04-10 11:13:00,39.2,37.9,29.85,NE,41,5.0,10.0,95,0.00,,,0.46,116,Wunderground v.1.15,2013-04-10 16:13:00,
2013-04-10 11:14:00,39.2,37.9,29.85,ENE,67,3.0,10.0,95,0.00,,,0.47,120,Wunderground v.1.15,2013-04-10 16:14:00,
2013-04-10 11:16:00,39.3,38.0,29.85,NE,34,5.0,10.0,95,0.00,,,0.47,105,Wunderground v.1.15,2013-04-10 16:16:00,
2013-04-10 11:18:00,39.3,38.0,29.85,ENE,60,4.0,10.0,95,0.00,,,0.47,105,Wunderground v.1.15,2013-04-10 16:18:00,
2013-04-10 11:19:00,39.2,37.9,29.85,ENE,61,11.0,11.0,95,0.00,,,0.47,109,Wunderground v.1.15,2013-04-10 16:19:00,
2013-04-10 11:20:00,39.2,37.9,29.85,ENE,63,7.0,7.0,95,0.00,,,0.47,107,Wunderground v.1.15,2013-04-10 16:20:00,
2013-04-10 11:22:00,39.2,37.9,29.85,NE,56,7.0,7.0,95,0.00,,,0.47,109,Wunderground v.1.15,2013-04-10 16:22:00,
2013-04-10 11:23:00,39.1,37.8,29.85,ENE,64,5.0,9.0,95,0.00,,,0.47,123,Wunderground v.1.15,2013-04-10 16:23:00,
2013-04-10 11:25:00,39.1,37.8,29.85,ENE,74,7.0,13.0,95,0.06,,,0.48,139,Wunderground v.1.15,2013-04-10 16:25:00,
2013-04-10 11:27:00,39.1,37.8,29.85,ENE,67,10.0,13.0,95,0.06,,,0.48,130,Wunderground v.1.15,2013-04-10 16:27:00,
2013-04-10 11:28:00,39.0,37.7,29.85,ENE,78,9.0,13.0,95,0.06,,,0.48,123,Wunderground v.1.15,2013-04-10 16:28:00,
2013-04-10 11:31:00,39.0,37.7,29.85,ENE,74,3.0,8.0,95,0.06,,,0.48,127,Wunderground v.1.15,2013-04-10 16:31:00,
2013-04-10 11:33:00,39.0,37.7,29.85,ENE,69,8.0,8.0,95,0.06,,,0.48,135,Wunderground v.1.15,2013-04-10 16:33:00,
2013-04-10 11:34:00,39.0,37.7,29.85,East,91,7.0,8.0,95,0.06,,,0.48,135,Wunderground v.1.15,2013-04-10 16:34:00,
2013-04-10 11:35:00,39.0,37.7,29.86,East,90,6.0,9.0,95,0.06,,,0.48,132,Wunderground v.1.15,2013-04-10 16:35:00,
2013-04-10 11:36:00,39.0,37.7,29.86,ENE,62,8.0,11.0,95,0.05,,,0.48,137,Wunderground v.1.15,2013-04-10 16:36:00,
2013-04-10 11:39:00,39.0,37.7,29.86,ENE,71,7.0,11.0,95,0.04,,,0.48,137,Wunderground v.1.15,2013-04-10 16:39:00,
2013-04-10 11:40:00,39.0,37.7,29.87,East,88,5.0,11.0,95,0.04,,,0.48,141,Wunderground v.1.15,2013-04-10 16:40:00,
2013-04-10 11:41:00,39.0,37.7,29.87,East,80,8.0,10.0,95,0.04,,,0.48,134,Wunderground v.1.15,2013-04-10 16:41:00,
2013-04-10 11:42:00,39.0,37.7,29.87,East,88,10.0,10.0,95,0.00,,,0.48,134,Wunderground v.1.15,2013-04-10 16:42:00,
2013-04-10 11:45:00,38.9,37.6,29.88,ENE,62,4.0,11.0,95,0.00,,,0.48,111,Wunderground v.1.15,2013-04-10 16:45:00,
2013-04-10 11:47:00,38.9,37.6,29.88,East,79,5.0,11.0,95,0.00,,,0.48,100,Wunderground v.1.15,2013-04-10 16:47:00,
2013-04-10 11:48:00,38.9,37.6,29.88,East,101,10.0,11.0,95,0.00,,,0.48,107,Wunderground v.1.15,2013-04-10 16:48:00,
2013-04-10 11:52:00,38.9,37.6,29.88,NE,55,8.0,8.0,95,0.00,,,0.48,104,Wunderground v.1.15,2013-04-10 16:52:00,
2013-04-10 11:53:00,38.9,37.6,29.88,NE,51,10.0,10.0,95,0.00,,,0.48,98,Wunderground v.1.15,2013-04-10 16:53:00,
2013-04-10 11:54:00,38.9,37.6,29.88,ENE,69,9.0,10.0,95,0.00,,,0.48,98,Wunderground v.1.15,2013-04-10 16:54:00,
2013-04-10 11:57:00,38.9,37.3,29.88,ENE,76,7.0,10.0,94,0.00,,,0.48,105,Wunderground v.1.15,2013-04-10 16:57:00,
2013-04-10 11:58:00,38.9,37.6,29.88,NE,55,3.0,10.0,95,0.00,,,0.48,107,Wunderground v.1.15,2013-04-10 16:58:00,
2013-04-10 12:00:00,39.0,37.7,29.88,East,80,7.0,10.0,95,0.00,,,0.48,111,Wunderground v.1.15,2013-04-10 17:00:00,
2013-04-10 12:02:00,39.0,37.7,29.88,NE,55,4.0,7.0,95,0.00,,,0.48,105,Wunderground v.1.15,2013-04-10 17:02:00,
2013-04-10 12:03:00,39.0,37.7,29.88,NE,53,8.0,8.0,95,0.00,,,0.48,104,Wunderground v.1.15,2013-04-10 17:03:00,
2013-04-10 12:05:00,39.0,37.7,29.87,ENE,67,7.0,8.0,95,0.00,,,0.48,114,Wunderground v.1.15,2013-04-10 17:05:00,
2013-04-10 12:06:00,39.0,37.7,29.87,NE,56,3.0,8.0,95,0.00,,,0.48,116,Wunderground v.1.15,2013-04-10 17:06:00,
2013-04-10 12:07:00,39.0,37.7,29.87,ENE,69,8.0,8.0,95,0.00,,,0.48,120,Wunderground v.1.15,2013-04-10 17:07:00,
2013-04-10 12:10:00,39.1,37.8,29.87,ENE,61,3.0,8.0,95,0.00,,,0.48,100,Wunderground v.1.15,2013-04-10 17:10:00,
2013-04-10 12:12:00,39.1,37.8,29.87,ENE,59,4.0,6.0,95,0.00,,,0.48,111,Wunderground v.1.15,2013-04-10 17:12:00,
2013-04-10 12:13:00,39.2,37.9,29.88,East,81,10.0,10.0,95,0.00,,,0.48,111,Wunderground v.1.15,2013-04-10 17:13:00,
2013-04-10 12:16:00,39.1,37.8,29.87,NE,49,5.0,10.0,95,0.00,,,0.48,84,Wunderground v.1.15,2013-04-10 17:16:00,
2013-04-10 12:18:00,39.2,37.9,29.87,East,80,10.0,10.0,95,0.00,,,0.48,83,Wunderground v.1.15,2013-04-10 17:18:00,
2013-04-10 12:21:00,39.1,37.8,29.87,ENE,57,7.0,9.0,95,0.00,,,0.48,95,Wunderground v.1.15,2013-04-10 17:21:00,
2013-04-10 12:23:00,39.1,37.8,29.88,NE,53,5.0,9.0,95,0.00,,,0.48,84,Wunderground v.1.15,2013-04-10 17:23:00,
2013-04-10 12:24:00,39.1,37.8,29.88,ENE,59,4.0,9.0,95,0.00,,,0.48,83,Wunderground v.1.15,2013-04-10 17:24:00,
2013-04-10 12:26:00,39.1,37.8,29.88,NE,52,4.0,9.0,95,0.00,,,0.48,83,Wunderground v.1.15,2013-04-10 17:26:00,
2013-04-10 12:27:00,39.1,37.8,29.88,East,86,5.0,9.0,95,0.00,,,0.48,81,Wunderground v.1.15,2013-04-10 17:27:00,
2013-04-10 12:29:00,39.1,37.8,29.88,ENE,74,5.0,9.0,95,0.00,,,0.48,86,Wunderground v.1.15,2013-04-10 17:29:00,
2013-04-10 12:31:00,39.1,37.8,29.88,ENE,69,7.0,9.0,95,0.00,,,0.49,90,Wunderground v.1.15,2013-04-10 17:31:00,
2013-04-10 12:32:00,39.1,37.8,29.88,ENE,77,5.0,9.0,95,0.00,,,0.49,95,Wunderground v.1.15,2013-04-10 17:32:00,
2013-04-10 12:33:00,39.1,37.8,29.88,ENE,76,5.0,9.0,95,0.00,,,0.49,93,Wunderground v.1.15,2013-04-10 17:33:00,
2013-04-10 12:34:00,39.2,37.9,29.88,NE,46,6.0,9.0,95,0.00,,,0.49,98,Wunderground v.1.15,2013-04-10 17:34:00,
2013-04-10 12:38:00,39.2,37.9,29.88,ENE,57,9.0,9.0,95,0.00,,,0.49,91,Wunderground v.1.15,2013-04-10 17:38:00,
2013-04-10 12:39:00,39.2,37.9,29.88,ENE,65,9.0,9.0,95,0.00,,,0.49,97,Wunderground v.1.15,2013-04-10 17:39:00,
2013-04-10 12:40:00,39.2,37.9,29.88,ENE,74,8.0,9.0,95,0.00,,,0.49,97,Wunderground v.1.15,2013-04-10 17:40:00,
2013-04-10 12:44:00,39.2,37.9,29.88,NE,52,5.0,10.0,95,0.05,,,0.50,91,Wunderground v.1.15,2013-04-10 17:44:00,
2013-04-10 12:45:00,39.2,37.9,29.88,ENE,69,7.0,10.0,95,0.05,,,0.50,93,Wunderground v.1.15,2013-04-10 17:45:00,
2013-04-10 12:49:00,39.4,38.1,29.88,ENE,63,11.0,11.0,95,0.05,,,0.50,93,Wunderground v.1.15,2013-04-10 17:49:00,
2013-04-10 12:50:00,39.4,38.1,29.88,ENE,57,7.0,11.0,95,0.05,,,0.50,93,Wunderground v.1.15,2013-04-10 17:50:00,
2013-04-10 12:51:00,39.4,38.1,29.87,East,80,5.0,6.0,95,0.06,,,0.50,83,Wunderground v.1.15,2013-04-10 17:51:00,
2013-04-10 12:55:00,39.4,38.1,29.87,East,90,6.0,8.0,95,0.06,,,0.51,91,Wunderground v.1.15,2013-04-10 17:55:00,
2013-04-10 12:56:00,39.4,38.1,29.87,ENE,61,3.0,8.0,95,0.06,,,0.51,91,Wunderground v.1.15,2013-04-10 17:56:00,
2013-04-10 12:57:00,39.4,38.1,29.87,ENE,74,4.0,8.0,95,0.06,,,0.51,93,Wunderground v.1.15,2013-04-10 17:57:00,
2013-04-10 13:01:00,39.4,38.1,29.86,East,92,8.0,8.0,95,0.06,,,0.51,93,Wunderground v.1.15,2013-04-10 18:01:00,
2013-04-10 13:02:00,39.4,38.1,29.86,ENE,69,8.0,8.0,95,0.06,,,0.51,100,Wunderground v.1.15,2013-04-10 18:02:00,
2013-04-10 13:03:00,39.4,38.1,29.86,East,95,8.0,11.0,95,0.05,,,0.51,125,Wunderground v.1.15,2013-04-10 18:03:00,
2013-04-10 13:07:00,39.6,38.6,29.84,East,93,5.0,11.0,96,0.04,,,0.51,148,Wunderground v.1.15,2013-04-10 18:07:00,
2013-04-10 13:08:00,39.6,38.6,29.84,East,89,8.0,14.0,96,0.00,,,0.51,148,Wunderground v.1.15,2013-04-10 18:08:00,
2013-04-10 13:09:00,39.6,38.3,29.84,ESE,116,9.0,14.0,95,0.00,,,0.52,151,Wunderground v.1.15,2013-04-10 18:09:00,
2013-04-10 13:10:00,39.6,38.3,29.84,East,90,10.0,14.0,95,0.00,,,0.52,151,Wunderground v.1.15,2013-04-10 18:10:00,
2013-04-10 13:12:00,39.6,38.3,29.83,East,93,10.0,15.0,95,0.00,,,0.52,148,Wunderground v.1.15,2013-04-10 18:12:00,
2013-04-10 13:13:00,39.6,38.3,29.83,ENE,68,9.0,15.0,95,0.00,,,0.52,153,Wunderground v.1.15,2013-04-10 18:13:00,
2013-04-10 13:14:00,39.6,38.3,29.83,East,97,10.0,15.0,95,0.00,,,0.52,162,Wunderground v.1.15,2013-04-10 18:14:00,
2013-04-10 13:16:00,39.7,38.4,29.84,ESE,108,11.0,15.0,95,0.00,,,0.52,162,Wunderground v.1.15,2013-04-10 18:16:00,
2013-04-10 13:18:00,39.7,38.4,29.84,East,94,6.0,15.0,95,0.00,,,0.52,151,Wunderground v.1.15,2013-04-10 18:18:00,
2013-04-10 13:19:00,39.8,38.5,29.84,East,84,7.0,15.0,95,0.00,,,0.52,158,Wunderground v.1.15,2013-04-10 18:19:00,
2013-04-10 13:21:00,39.8,38.5,29.84,ENE,65,7.0,11.0,95,0.00,,,0.52,153,Wunderground v.1.15,2013-04-10 18:21:00,
2013-04-10 13:22:00,39.9,38.6,29.84,East,92,8.0,11.0,95,0.00,,,0.52,162,Wunderground v.1.15,2013-04-10 18:22:00,
2013-04-10 13:23:00,39.9,38.9,29.84,East,96,13.0,13.0,96,0.00,,,0.52,160,Wunderground v.1.15,2013-04-10 18:23:00,
2013-04-10 13:25:00,39.9,38.6,29.84,ESE,108,10.0,13.0,95,0.00,,,0.52,160,Wunderground v.1.15,2013-04-10 18:25:00,
2013-04-10 13:27:00,39.9,38.6,29.84,ESE,109,7.0,13.0,95,0.00,,,0.52,153,Wunderground v.1.15,2013-04-10 18:27:00,
2013-04-10 13:29:00,39.9,38.6,29.85,ENE,78,5.0,14.0,95,0.00,,,0.52,158,Wunderground v.1.15,2013-04-10 18:29:00,
2013-04-10 13:30:00,40.0,38.7,29.85,East,83,7.0,9.0,95,0.00,,,0.52,160,Wunderground v.1.15,2013-04-10 18:30:00,
2013-04-10 13:31:00,40.0,38.7,29.85,East,85,6.0,9.0,95,0.00,,,0.52,160,Wunderground v.1.15,2013-04-10 18:31:00,
2013-04-10 13:33:00,40.0,38.7,29.85,ENE,65,12.0,13.0,95,0.00,,,0.52,153,Wunderground v.1.15,2013-04-10 18:33:00,
2013-04-10 13:34:00,40.0,38.7,29.85,ENE,68,7.0,13.0,95,0.00,,,0.52,142,Wunderground v.1.15,2013-04-10 18:34:00,
2013-04-10 13:36:00,40.1,38.8,29.85,East,99,6.0,13.0,95,0.00,,,0.52,144,Wunderground v.1.15,2013-04-10 18:36:00,
2013-04-10 13:39:00,40.2,38.9,29.85,ESE,110,5.0,13.0,95,0.00,,,0.52,144,Wunderground v.1.15,2013-04-10 18:39:00,
2013-04-10 13:40:00,40.2,38.9,29.85,East,79,8.0,8.0,95,0.00,,,0.52,139,Wunderground v.1.15,2013-04-10 18:40:00,
2013-04-10 13:41:00,40.2,38.9,29.84,East,86,9.0,10.0,95,0.00,,,0.52,139,Wunderground v.1.15,2013-04-10 18:41:00,
2013-04-10 13:43:00,40.2,38.9,29.84,ENE,59,5.0,10.0,95,0.00,,,0.52,125,Wunderground v.1.15,2013-04-10 18:43:00,
2013-04-10 13:46:00,40.4,39.1,29.85,East,94,2.0,10.0,95,0.00,,,0.52,104,Wunderground v.1.15,2013-04-10 18:46:00,
2013-04-10 13:48:00,40.3,39.0,29.85,East,100,1.0,10.0,95,0.00,,,0.52,91,Wunderground v.1.15,2013-04-10 18:48:00,
2013-04-10 13:52:00,40.2,38.9,29.86,ENE,64,2.0,7.0,95,0.00,,,0.52,79,Wunderground v.1.15,2013-04-10 18:52:00,
2013-04-10 13:53:00,40.2,38.9,29.86,ENE,65,1.0,7.0,95,0.00,,,0.52,79,Wunderground v.1.15,2013-04-10 18:53:00,
2013-04-10 13:54:00,40.2,38.9,29.86,NE,53,0.0,7.0,95,0.00,,,0.52,77,Wunderground v.1.15,2013-04-10 18:54:00,
2013-04-10 13:55:00,40.2,38.9,29.87,NE,54,4.0,7.0,95,0.00,,,0.52,76,Wunderground v.1.15,2013-04-10 18:55:00,
2013-04-10 13:59:00,40.2,38.9,29.86,NE,34,1.0,7.0,95,0.00,,,0.52,90,Wunderground v.1.15,2013-04-10 18:59:00,
2013-04-10 14:00:00,40.2,38.9,29.87,NE,34,1.0,3.0,95,0.00,,,0.52,86,Wunderground v.1.15,2013-04-10 19:00:00,
2013-04-10 14:01:00,40.3,39.0,29.87,NE,34,2.0,3.0,95,0.00,,,0.52,84,Wunderground v.1.15,2013-04-10 19:01:00,
2013-04-10 14:04:00,40.5,39.2,29.86,NE,34,2.0,3.0,95,0.00,,,0.52,111,Wunderground v.1.15,2013-04-10 19:04:00,
2013-04-10 14:05:00,40.5,39.2,29.86,NE,34,2.0,3.0,95,0.00,,,0.52,111,Wunderground v.1.15,2013-04-10 19:05:00,
2013-04-10 14:07:00,40.6,39.3,29.86,NE,34,4.0,4.0,95,0.00,,,0.52,125,Wunderground v.1.15,2013-04-10 19:07:00,
2013-04-10 14:08:00,40.6,39.3,29.86,NE,34,0.0,4.0,95,0.00,,,0.52,132,Wunderground v.1.15,2013-04-10 19:08:00,
2013-04-10 14:10:00,40.6,39.3,29.86,NNE,22,2.0,2.0,95,0.00,,,0.53,202,Wunderground v.1.15,2013-04-10 19:10:00,
2013-04-10 14:12:00,40.6,39.3,29.85,NE,51,6.0,6.0,95,0.00,,,0.53,237,Wunderground v.1.15,2013-04-10 19:12:00,
2013-04-10 14:15:00,40.6,39.3,29.86,NE,51,4.0,7.0,95,0.00,,,0.53,193,Wunderground v.1.15,2013-04-10 19:15:00,
2013-04-10 14:17:00,40.6,39.3,29.86,NE,38,3.0,7.0,95,0.08,,,0.54,156,Wunderground v.1.15,2013-04-10 19:17:00,
2013-04-10 14:18:00,40.6,39.3,29.86,ENE,69,4.0,7.0,95,0.08,,,0.54,144,Wunderground v.1.15,2013-04-10 19:18:00,
2013-04-10 14:20:00,40.5,39.2,29.86,ENE,65,7.0,7.0,95,0.08,,,0.54,134,Wunderground v.1.15,2013-04-10 19:20:00,
2013-04-10 14:22:00,40.5,39.2,29.86,NNE,30,5.0,7.0,95,0.08,,,0.54,125,Wunderground v.1.15,2013-04-10 19:22:00,
2013-04-10 14:24:00,40.4,39.1,29.86,NE,44,3.0,7.0,95,0.07,,,0.54,111,Wunderground v.1.15,2013-04-10 19:24:00,
2013-04-10 14:25:00,40.4,39.1,29.86,NE,51,5.0,7.0,95,0.06,,,0.54,114,Wunderground v.1.15,2013-04-10 19:25:00,
2013-04-10 14:26:00,40.3,39.0,29.86,NE,34,0.0,7.0,95,0.06,,,0.54,121,Wunderground v.1.15,2013-04-10 19:26:00,
2013-04-10 14:27:00,40.3,39.0,29.86,NE,34,2.0,7.0,95,0.05,,,0.54,128,Wunderground v.1.15,2013-04-10 19:27:00,
2013-04-10 14:30:00,40.4,39.1,29.86,NE,55,5.0,7.0,95,0.04,,,0.54,137,Wunderground v.1.15,2013-04-10 19:30:00,
2013-04-10 14:33:00,40.3,39.0,29.86,ENE,62,2.0,5.0,95,0.00,,,0.54,128,Wunderground v.1.15,2013-04-10 19:33:00,
2013-04-10 14:34:00,40.4,39.1,29.86,ENE,62,4.0,5.0,95,0.00,,,0.54,130,Wunderground v.1.15,2013-04-10 19:34:00,
2013-04-10 14:35:00,40.4,39.4,29.86,ENE,62,4.0,5.0,96,0.00,,,0.54,121,Wunderground v.1.15,2013-04-10 19:35:00,
2013-04-10 14:36:00,40.5,39.4,29.86,NE,36,5.0,5.0,96,0.00,,,0.54,118,Wunderground v.1.15,2013-04-10 19:36:00,
2013-04-10 14:39:00,40.5,39.4,29.86,North,355,3.0,6.0,96,0.00,,,0.54,104,Wunderground v.1.15,2013-04-10 19:39:00,
2013-04-10 14:40:00,40.5,39.4,29.86,North,10,3.0,4.0,96,0.00,,,0.54,111,Wunderground v.1.15,2013-04-10 19:40:00,
2013-04-10 14:45:00,40.4,39.4,29.85,NE,43,4.0,8.0,96,0.00,,,0.54,149,Wunderground v.1.15,2013-04-10 19:45:00,
2013-04-10 14:46:00,40.4,39.4,29.84,North,11,5.0,8.0,96,0.00,,,0.54,158,Wunderground v.1.15,2013-04-10 19:46:00,
2013-04-10 14:47:00,40.4,39.4,29.85,ENE,59,9.0,9.0,96,0.00,,,0.54,130,Wunderground v.1.15,2013-04-10 19:47:00,
2013-04-10 14:50:00,40.3,39.3,29.85,NNE,21,2.0,9.0,96,0.00,,,0.54,153,Wunderground v.1.15,2013-04-10 19:50:00,
2013-04-10 14:51:00,40.3,39.3,29.85,NE,44,3.0,5.0,96,0.00,,,0.54,153,Wunderground v.1.15,2013-04-10 19:51:00,
2013-04-10 14:53:00,40.2,39.2,29.85,NE,39,5.0,9.0,96,0.00,,,0.54,160,Wunderground v.1.15,2013-04-10 19:53:00,
2013-04-10 14:54:00,40.2,39.2,29.84,NE,46,6.0,9.0,96,0.00,,,0.54,169,Wunderground v.1.15,2013-04-10 19:54:00,
2013-04-10 14:56:00,40.1,39.1,29.84,NNE,19,2.0,9.0,96,0.00,,,0.54,163,Wunderground v.1.15,2013-04-10 19:56:00,
2013-04-10 14:57:00,40.2,39.2,29.84,NNE,27,3.0,9.0,96,0.00,,,0.54,176,Wunderground v.1.15,2013-04-10 19:57:00,
2013-04-10 14:58:00,40.3,39.3,29.84,NNE,33,3.0,9.0,96,0.00,,,0.54,176,Wunderground v.1.15,2013-04-10 19:58:00,
2013-04-10 14:59:00,40.3,39.3,29.84,ENE,57,4.0,9.0,96,0.00,,,0.54,148,Wunderground v.1.15,2013-04-10 19:59:00,
2013-04-10 15:02:00,40.3,39.3,29.83,NE,55,5.0,7.0,96,0.00,,,0.54,141,Wunderground v.1.15,2013-04-10 20:02:00,
2013-04-10 15:03:00,40.3,39.3,29.83,NE,40,4.0,8.0,96,0.00,,,0.54,176,Wunderground v.1.15,2013-04-10 20:03:00,
2013-04-10 15:05:00,40.4,39.4,29.83,NNE,32,5.0,8.0,96,0.00,,,0.54,167,Wunderground v.1.15,2013-04-10 20:05:00,
2013-04-10 15:08:00,40.3,39.3,29.84,NE,40,2.0,8.0,96,0.00,,,0.54,158,Wunderground v.1.15,2013-04-10 20:08:00,
2013-04-10 15:09:00,40.3,39.3,29.85,North,5,4.0,8.0,96,0.00,,,0.54,142,Wunderground v.1.15,2013-04-10 20:09:00,
2013-04-10 15:10:00,40.2,39.2,29.84,ENE,59,8.0,8.0,96,0.00,,,0.54,149,Wunderground v.1.15,2013-04-10 20:10:00,
2013-04-10 15:11:00,40.1,39.1,29.84,ENE,64,8.0,8.0,96,0.00,,,0.54,167,Wunderground v.1.15,2013-04-10 20:11:00,
2013-04-10 15:14:00,40.0,39.0,29.83,North,360,5.0,9.0,96,0.00,,,0.54,185,Wunderground v.1.15,2013-04-10 20:14:00,
2013-04-10 15:16:00,40.0,39.0,29.82,NNE,28,4.0,9.0,96,0.00,,,0.54,172,Wunderground v.1.15,2013-04-10 20:16:00,
2013-04-10 15:17:00,40.1,39.1,29.82,ENE,71,7.0,9.0,96,0.00,,,0.54,225,Wunderground v.1.15,2013-04-10 20:17:00,
2013-04-10 15:19:00,40.1,39.1,29.84,NNE,26,3.0,9.0,96,0.00,,,0.54,167,Wunderground v.1.15,2013-04-10 20:19:00,
2013-04-10 15:21:00,40.0,39.0,29.86,NNE,30,3.0,6.0,96,0.00,,,0.54,116,Wunderground v.1.15,2013-04-10 20:21:00,
2013-04-10 15:23:00,40.0,39.0,29.86,NE,37,2.0,6.0,96,0.00,,,0.54,121,Wunderground v.1.15,2013-04-10 20:23:00,
2013-04-10 15:24:00,40.1,39.1,29.86,NNE,30,6.0,6.0,96,0.00,,,0.54,128,Wunderground v.1.15,2013-04-10 20:24:00,
2013-04-10 15:25:00,40.1,39.1,29.86,NE,42,5.0,6.0,96,0.00,,,0.54,134,Wunderground v.1.15,2013-04-10 20:25:00,
2013-04-10 15:28:00,40.0,39.0,29.84,ENE,59,7.0,7.0,96,0.00,,,0.54,151,Wunderground v.1.15,2013-04-10 20:28:00,
2013-04-10 15:30:00,40.0,39.0,29.84,ENE,57,3.0,5.0,96,0.00,,,0.54,144,Wunderground v.1.15,2013-04-10 20:30:00,
2013-04-10 15:33:00,39.9,38.6,29.84,NNE,15,5.0,7.0,95,0.00,,,0.54,137,Wunderground v.1.15,2013-04-10 20:33:00,
2013-04-10 15:34:00,40.0,39.0,29.85,North,9,2.0,7.0,96,0.00,,,0.54,121,Wunderground v.1.15,2013-04-10 20:34:00,
2013-04-10 15:36:00,39.9,38.6,29.85,NNE,26,3.0,7.0,95,0.00,,,0.54,125,Wunderground v.1.15,2013-04-10 20:36:00,
2013-04-10 15:38:00,39.9,38.6,29.85,NE,36,4.0,7.0,95,0.00,,,0.54,148,Wunderground v.1.15,2013-04-10 20:38:00,
2013-04-10 15:40:00,40.0,38.7,29.85,North,5,5.0,7.0,95,0.00,,,0.54,132,Wunderground v.1.15,2013-04-10 20:40:00,
2013-04-10 15:42:00,39.9,38.6,29.85,NNE,16,3.0,7.0,95,0.00,,,0.54,155,Wunderground v.1.15,2013-04-10 20:42:00,
2013-04-10 15:44:00,40.0,38.7,29.85,ENE,59,3.0,7.0,95,0.00,,,0.54,174,Wunderground v.1.15,2013-04-10 20:44:00,
2013-04-10 15:46:00,40.1,38.8,29.85,NNE,31,4.0,7.0,95,0.00,,,0.54,181,Wunderground v.1.15,2013-04-10 20:46:00,
2013-04-10 15:48:00,40.1,38.8,29.85,NNE,24,3.0,7.0,95,0.00,,,0.54,211,Wunderground v.1.15,2013-04-10 20:48:00,
2013-04-10 15:51:00,40.3,39.0,29.84,East,79,6.0,10.0,95,0.00,,,0.54,221,Wunderground v.1.15,2013-04-10 20:51:00,
2013-04-10 15:53:00,40.3,39.0,29.84,NE,39,5.0,10.0,95,0.00,,,0.54,211,Wunderground v.1.15,2013-04-10 20:53:00,
2013-04-10 15:54:00,40.3,39.0,29.84,ENE,59,4.0,10.0,95,0.00,,,0.54,200,Wunderground v.1.15,2013-04-10 20:54:00,
2013-04-10 15:58:00,40.3,39.0,29.83,NNE,30,5.0,10.0,95,0.00,,,0.54,139,Wunderground v.1.15,2013-04-10 20:58:00,
2013-04-10 16:00:00,40.2,38.6,29.83,NNE,23,5.0,5.0,94,0.00,,,0.54,121,Wunderground v.1.15,2013-04-10 21:00:00,
2013-04-10 16:03:00,40.1,38.8,29.83,NNE,18,2.0,5.0,95,0.00,,,0.54,132,Wunderground v.1.15,2013-04-10 21:03:00,
2013-04-10 16:04:00,40.2,38.9,29.83,NE,41,8.0,8.0,95,0.00,,,0.54,135,Wunderground v.1.15,2013-04-10 21:04:00,
2013-04-10 16:08:00,40.1,38.8,29.83,NNE,20,4.0,8.0,95,0.00,,,0.54,149,Wunderground v.1.15,2013-04-10 21:08:00,
2013-04-10 16:10:00,40.1,38.8,29.82,NE,40,5.0,5.0,95,0.00,,,0.54,181,Wunderground v.1.15,2013-04-10 21:10:00,
2013-04-10 16:14:00,40.1,38.8,29.82,ENE,72,2.0,7.0,95,0.00,,,0.54,181,Wunderground v.1.15,2013-04-10 21:14:00,
2013-04-10 16:15:00,40.1,38.8,29.82,ENE,63,2.0,7.0,95,0.00,,,0.54,178,Wunderground v.1.15,2013-04-10 21:15:00,
2013-04-10 16:18:00,40.2,38.9,29.82,ENE,61,8.0,8.0,95,0.00,,,0.54,135,Wunderground v.1.15,2013-04-10 21:18:00,
2013-04-10 16:19:00,40.2,38.9,29.81,NNE,31,4.0,8.0,95,0.00,,,0.54,163,Wunderground v.1.15,2013-04-10 21:19:00,
2013-04-10 16:20:00,40.2,38.9,29.81,NE,38,6.0,6.0,95,0.00,,,0.54,178,Wunderground v.1.15,2013-04-10 21:20:00,
2013-04-10 16:21:00,40.2,38.9,29.81,NE,43,3.0,6.0,95,0.00,,,0.54,193,Wunderground v.1.15,2013-04-10 21:21:00,
2013-04-10 16:23:00,40.2,38.9,29.81,NNE,14,3.0,9.0,95,0.00,,,0.54,183,Wunderground v.1.15,2013-04-10 21:23:00,
2013-04-10 16:26:00,40.2,38.9,29.81,NNE,29,5.0,9.0,95,0.00,,,0.54,192,Wunderground v.1.15,2013-04-10 21:26:00,
2013-04-10 16:27:00,40.1,38.8,29.81,NE,43,5.0,9.0,95,0.00,,,0.54,192,Wunderground v.1.15,2013-04-10 21:27:00,
2013-04-10 16:28:00,40.2,38.9,29.81,NNE,22,4.0,9.0,95,0.00,,,0.54,197,Wunderground v.1.15,2013-04-10 21:28:00,
2013-04-10 16:31:00,40.2,38.9,29.81,ENE,69,7.0,8.0,95,0.00,,,0.54,181,Wunderground v.1.15,2013-04-10 21:31:00,
2013-04-10 16:32:00,40.2,38.9,29.81,ENE,57,5.0,8.0,95,0.00,,,0.54,181,Wunderground v.1.15,2013-04-10 21:32:00,
2013-04-10 16:33:00,40.2,38.6,29.81,ENE,61,4.0,8.0,94,0.00,,,0.54,132,Wunderground v.1.15,2013-04-10 21:33:00,
2013-04-10 16:34:00,40.3,39.0,29.80,ENE,61,4.0,8.0,95,0.00,,,0.54,107,Wunderground v.1.15,2013-04-10 21:34:00,
2013-04-10 16:37:00,40.4,38.8,29.80,NE,51,5.0,8.0,94,0.00,,,0.54,70,Wunderground v.1.15,2013-04-10 21:37:00,
2013-04-10 16:38:00,40.4,38.8,29.80,NE,51,4.0,8.0,94,0.00,,,0.54,72,Wunderground v.1.15,2013-04-10 21:38:00,
2013-04-10 16:39:00,40.4,38.8,29.80,NE,51,6.0,8.0,94,0.00,,,0.54,72,Wunderground v.1.15,2013-04-10 21:39:00,
2013-04-10 16:40:00,40.4,38.8,29.80,NE,44,4.0,8.0,94,0.00,,,0.54,72,Wunderground v.1.15,2013-04-10 21:40:00,
2013-04-10 16:44:00,40.2,38.6,29.80,ENE,60,5.0,7.0,94,0.00,,,0.54,60,Wunderground v.1.15,2013-04-10 21:44:00,
2013-04-10 16:45:00,40.2,38.6,29.80,ENE,58,8.0,8.0,94,0.00,,,0.54,62,Wunderground v.1.15,2013-04-10 21:45:00,
2013-04-10 16:47:00,40.1,38.5,29.80,NNE,27,2.0,10.0,94,0.00,,,0.54,72,Wunderground v.1.15,2013-04-10 21:47:00,
2013-04-10 16:49:00,39.9,38.3,29.80,ENE,59,7.0,10.0,94,0.00,,,0.54,91,Wunderground v.1.15,2013-04-10 21:49:00,
2013-04-10 16:50:00,39.8,37.9,29.80,NE,40,4.0,6.0,93,0.00,,,0.54,95,Wunderground v.1.15,2013-04-10 21:50:00,
2013-04-10 16:53:00,39.8,38.2,29.81,ENE,61,5.0,7.0,94,0.00,,,0.54,88,Wunderground v.1.15,2013-04-10 21:53:00,
2013-04-10 16:55:00,39.8,38.2,29.81,North,355,4.0,7.0,94,0.00,,,0.54,81,Wunderground v.1.15,2013-04-10 21:55:00,
2013-04-10 16:56:00,39.8,38.2,29.81,NNE,33,5.0,7.0,94,0.00,,,0.54,79,Wunderground v.1.15,2013-04-10 21:56:00,
2013-04-10 16:58:00,39.8,38.2,29.81,NE,49,4.0,7.0,94,0.00,,,0.54,72,Wunderground v.1.15,2013-04-10 21:58:00,
2013-04-10 16:59:00,39.7,38.1,29.81,East,79,3.0,7.0,94,0.00,,,0.54,67,Wunderground v.1.15,2013-04-10 21:59:00,
2013-04-10 17:02:00,39.8,38.2,29.82,NE,37,2.0,7.0,94,0.00,,,0.54,47,Wunderground v.1.15,2013-04-10 22:02:00,
2013-04-10 17:06:00,39.8,38.2,29.82,ENE,57,8.0,9.0,94,0.00,,,0.54,54,Wunderground v.1.15,2013-04-10 22:06:00,
2013-04-10 17:07:00,39.8,38.2,29.82,NE,41,3.0,9.0,94,0.00,,,0.54,53,Wunderground v.1.15,2013-04-10 22:07:00,
2013-04-10 17:09:00,39.8,38.2,29.82,NE,38,2.0,9.0,94,0.00,,,0.54,49,Wunderground v.1.15,2013-04-10 22:09:00,
2013-04-10 17:13:00,39.9,38.3,29.82,NE,46,5.0,5.0,94,0.00,,,0.54,47,Wunderground v.1.15,2013-04-10 22:13:00,
2013-04-10 17:14:00,39.8,38.2,29.81,ENE,77,4.0,7.0,94,0.00,,,0.54,47,Wunderground v.1.15,2013-04-10 22:14:00,
2013-04-10 17:15:00,39.9,38.3,29.82,NE,34,4.0,7.0,94,0.00,,,0.54,49,Wunderground v.1.15,2013-04-10 22:15:00,
2013-04-10 17:18:00,39.8,38.2,29.81,NE,53,4.0,7.0,94,0.00,,,0.54,51,Wunderground v.1.15,2013-04-10 22:18:00,
2013-04-10 17:19:00,39.8,38.2,29.81,NE,38,4.0,7.0,94,0.00,,,0.54,47,Wunderground v.1.15,2013-04-10 22:19:00,
2013-04-10 17:20:00,39.8,38.2,29.81,NE,46,3.0,4.0,94,0.00,,,0.54,47,Wunderground v.1.15,2013-04-10 22:20:00,
2013-04-10 17:23:00,39.8,38.2,29.81,NE,35,3.0,6.0,94,0.00,,,0.54,39,Wunderground v.1.15,2013-04-10 22:23:00,
2013-04-10 17:26:00,39.8,38.2,29.81,NE,45,2.0,6.0,94,0.00,,,0.54,28,Wunderground v.1.15,2013-04-10 22:26:00,
2013-04-10 17:27:00,39.8,38.2,29.81,East,84,3.0,7.0,94,0.00,,,0.54,28,Wunderground v.1.15,2013-04-10 22:27:00,
2013-04-10 17:28:00,39.8,38.2,29.81,East,80,5.0,7.0,94,0.00,,,0.54,26,Wunderground v.1.15,2013-04-10 22:28:00,
2013-04-10 17:32:00,39.8,38.2,29.81,NE,40,8.0,8.0,94,0.00,,,0.54,32,Wunderground v.1.15,2013-04-10 22:32:00,
2013-04-10 17:33:00,39.8,38.2,29.81,NE,50,4.0,8.0,94,0.00,,,0.54,35,Wunderground v.1.15,2013-04-10 22:33:00,
2013-04-10 17:34:00,39.8,38.2,29.81,ENE,71,4.0,8.0,94,0.00,,,0.54,39,Wunderground v.1.15,2013-04-10 22:34:00,
2013-04-10 17:37:00,39.8,38.2,29.80,NNE,24,3.0,8.0,94,0.00,,,0.54,35,Wunderground v.1.15,2013-04-10 22:37:00,
2013-04-10 17:38:00,39.8,38.2,29.80,NNE,28,3.0,8.0,94,0.00,,,0.54,33,Wunderground v.1.15,2013-04-10 22:38:00,
2013-04-10 17:41:00,39.8,38.2,29.80,NE,42,4.0,4.0,94,0.00,,,0.54,40,Wunderground v.1.15,2013-04-10 22:41:00,
2013-04-10 17:44:00,39.8,38.2,29.80,NE,46,4.0,8.0,94,0.00,,,0.54,28,Wunderground v.1.15,2013-04-10 22:44:00,
2013-04-10 17:46:00,39.8,38.2,29.80,NE,40,4.0,8.0,94,0.00,,,0.54,25,Wunderground v.1.15,2013-04-10 22:46:00,
2013-04-10 17:47:00,39.8,38.2,29.79,NE,49,6.0,8.0,94,0.00,,,0.54,25,Wunderground v.1.15,2013-04-10 22:47:00,
2013-04-10 17:52:00,39.7,38.1,29.79,NE,51,3.0,5.0,94,0.00,,,0.54,28,Wunderground v.1.15,2013-04-10 22:52:00,
2013-04-10 17:55:00,39.7,38.1,29.79,NE,36,6.0,7.0,94,0.00,,,0.54,33,Wunderground v.1.15,2013-04-10 22:55:00,
2013-04-10 17:57:00,39.7,38.1,29.79,NE,35,5.0,8.0,94,0.00,,,0.54,32,Wunderground v.1.15,2013-04-10 22:57:00,
2013-04-10 17:58:00,39.7,38.1,29.79,NE,47,5.0,8.0,94,0.00,,,0.54,28,Wunderground v.1.15,2013-04-10 22:58:00,
2013-04-10 17:59:00,39.7,38.1,29.79,NE,38,7.0,9.0,94,0.00,,,0.54,23,Wunderground v.1.15,2013-04-10 22:59:00,
2013-04-10 18:03:00,39.7,38.1,29.79,ENE,69,7.0,11.0,94,0.00,,,0.54,30,Wunderground v.1.15,2013-04-10 23:03:00,
2013-04-10 18:06:00,39.6,38.0,29.79,ENE,76,5.0,11.0,94,0.00,,,0.54,26,Wunderground v.1.15,2013-04-10 23:06:00,
2013-04-10 18:08:00,39.7,38.1,29.79,NE,44,4.0,11.0,94,0.00,,,0.54,23,Wunderground v.1.15,2013-04-10 23:08:00,
2013-04-10 18:09:00,39.7,38.1,29.79,ENE,72,8.0,11.0,94,0.00,,,0.54,23,Wunderground v.1.15,2013-04-10 23:09:00,
2013-04-10 18:12:00,39.7,38.1,29.77,NNE,30,7.0,10.0,94,0.00,,,0.54,18,Wunderground v.1.15,2013-04-10 23:12:00,
2013-04-10 18:15:00,39.6,38.0,29.76,NNE,30,4.0,11.0,94,0.00,,,0.54,28,Wunderground v.1.15,2013-04-10 23:15:00,
2013-04-10 18:17:00,39.6,38.0,29.75,East,83,6.0,11.0,94,0.00,,,0.54,32,Wunderground v.1.15,2013-04-10 23:17:00,
2013-04-10 18:18:00,39.6,38.0,29.75,ENE,68,9.0,11.0,94,0.00,,,0.54,35,Wunderground v.1.15,2013-04-10 23:18:00,
2013-04-10 18:21:00,39.5,37.9,29.74,NE,53,9.0,11.0,94,0.00,,,0.54,49,Wunderground v.1.15,2013-04-10 23:21:00,
2013-04-10 18:22:00,39.5,37.9,29.74,NE,46,10.0,11.0,94,0.00,,,0.54,53,Wunderground v.1.15,2013-04-10 23:22:00,
2013-04-10 18:23:00,39.5,37.9,29.73,NNE,32,7.0,13.0,94,0.00,,,0.54,58,Wunderground v.1.15,2013-04-10 23:23:00,
2013-04-10 18:25:00,39.4,38.1,29.73,NE,50,5.0,14.0,95,0.00,,,0.54,69,Wunderground v.1.15,2013-04-10 23:25:00,
2013-04-10 18:27:00,39.4,37.8,29.73,East,80,9.0,14.0,94,0.00,,,0.54,39,Wunderground v.1.15,2013-04-10 23:27:00,
2013-04-10 18:30:00,39.4,37.8,29.72,East,84,10.0,10.0,94,0.00,,,0.54,72,Wunderground v.1.15,2013-04-10 23:30:00,
2013-04-10 18:31:00,39.4,38.1,29.72,NE,38,6.0,11.0,95,0.00,,,0.54,84,Wunderground v.1.15,2013-04-10 23:31:00,
2013-04-10 18:32:00,39.3,37.7,29.72,NE,40,8.0,11.0,94,0.00,,,0.54,62,Wunderground v.1.15,2013-04-10 23:32:00,
2013-04-10 18:33:00,39.3,37.7,29.72,NE,53,7.0,11.0,94,0.00,,,0.54,62,Wunderground v.1.15,2013-04-10 23:33:00,
2013-04-10 18:36:00,39.3,37.7,29.73,North,349,9.0,17.0,94,0.00,,,0.54,58,Wunderground v.1.15,2013-04-10 23:36:00,
2013-04-10 18:37:00,39.3,37.7,29.73,NE,40,9.0,17.0,94,0.00,,,0.54,51,Wunderground v.1.15,2013-04-10 23:37:00,
2013-04-10 18:38:00,39.4,37.8,29.72,NNE,30,9.0,17.0,94,0.00,,,0.54,37,Wunderground v.1.15,2013-04-10 23:38:00,
2013-04-10 18:39:00,39.4,38.1,29.72,NE,51,13.0,17.0,95,0.00,,,0.54,37,Wunderground v.1.15,2013-04-10 23:39:00,
2013-04-10 18:41:00,39.4,37.8,29.71,NE,53,10.0,10.0,94,0.00,,,0.54,30,Wunderground v.1.15,2013-04-10 23:41:00,
2013-04-10 18:43:00,39.5,37.9,29.70,NE,46,8.0,12.0,94,0.00,,,0.54,28,Wunderground v.1.15,2013-04-10 23:43:00,
2013-04-10 18:44:00,39.4,37.8,29.70,East,81,7.0,12.0,94,0.00,,,0.54,30,Wunderground v.1.15,2013-04-10 23:44:00,
2013-04-10 18:48:00,39.5,37.9,29.70,ENE,59,7.0,16.0,94,0.00,,,0.54,26,Wunderground v.1.15,2013-04-10 23:48:00,
2013-04-10 18:49:00,39.4,37.8,29.70,NE,50,7.0,16.0,94,0.00,,,0.54,25,Wunderground v.1.15,2013-04-10 23:49:00,
2013-04-10 18:50:00,39.4,37.8,29.71,ENE,64,10.0,16.0,94,0.00,,,0.54,23,Wunderground v.1.15,2013-04-10 23:50:00,
2013-04-10 18:54:00,39.5,37.9,29.72,NE,49,9.0,14.0,94,0.00,,,0.54,21,Wunderground v.1.15,2013-04-10 23:54:00,
2013-04-10 18:55:00,39.4,37.8,29.72,NNE,25,6.0,14.0,94,0.00,,,0.54,18,Wunderground v.1.15,2013-04-10 23:55:00,
2013-04-10 18:57:00,39.4,37.8,29.72,NE,44,3.0,14.0,94,0.00,,,0.54,14,Wunderground v.1.15,2013-04-10 23:57:00,
2013-04-10 19:00:00,39.5,37.9,29.73,NNE,16,9.0,14.0,94,0.00,,,0.54,12,Wunderground v.1.15,2013-04-11 00:00:00,
2013-04-10 19:01:00,39.5,37.9,29.73,NE,54,9.0,15.0,94,0.00,,,0.54,11,Wunderground v.1.15,2013-04-11 00:01:00,
2013-04-10 19:04:00,39.4,37.8,29.73,ENE,60,11.0,15.0,94,0.00,,,0.54,9,Wunderground v.1.15,2013-04-11 00:04:00,
2013-04-10 19:06:00,39.4,37.8,29.73,NE,51,3.0,15.0,94,0.00,,,0.54,7,Wunderground v.1.15,2013-04-11 00:06:00,
2013-04-10 19:07:00,39.5,38.2,29.74,NE,56,9.0,15.0,95,0.00,,,0.54,7,Wunderground v.1.15,2013-04-11 00:07:00,
2013-04-10 19:09:00,39.4,38.1,29.74,ENE,71,3.0,15.0,95,0.00,,,0.54,7,Wunderground v.1.15,2013-04-11 00:09:00,
2013-04-10 19:10:00,39.4,38.1,29.74,NE,49,8.0,8.0,95,0.00,,,0.54,7,Wunderground v.1.15,2013-04-11 00:10:00,
2013-04-10 19:12:00,39.4,38.1,29.75,NE,55,5.0,10.0,95,0.00,,,0.54,5,Wunderground v.1.15,2013-04-11 00:12:00,
2013-04-10 19:15:00,39.4,38.1,29.76,NNE,28,5.0,12.0,95,0.00,,,0.54,5,Wunderground v.1.15,2013-04-11 00:15:00,
2013-04-10 19:20:00,39.4,38.1,29.75,NE,55,5.0,7.0,95,0.00,,,0.54,5,Wunderground v.1.15,2013-04-11 00:20:00,
2013-04-10 19:21:00,39.4,38.1,29.75,East,86,7.0,7.0,95,0.00,,,0.54,5,Wunderground v.1.15,2013-04-11 00:21:00,
2013-04-10 19:22:00,39.4,38.1,29.75,ENE,76,4.0,7.0,95,0.00,,,0.54,0,Wunderground v.1.15,2013-04-11 00:22:00,
2013-04-10 19:26:00,39.4,38.1,29.74,NE,47,7.0,13.0,95,0.00,,,0.54,0,Wunderground v.1.15,2013-04-11 00:26:00,
2013-04-10 19:27:00,39.4,38.1,29.74,ENE,74,4.0,13.0,95,0.00,,,0.54,0,Wunderground v.1.15,2013-04-11 00:27:00,
2013-04-10 19:29:00,39.4,38.1,29.74,ENE,63,7.0,13.0,95,0.00,,,0.54,0,Wunderground v.1.15,2013-04-11 00:29:00,
2013-04-10 19:32:00,39.4,38.1,29.74,NE,53,5.0,9.0,95,0.00,,,0.54,5,Wunderground v.1.15,2013-04-11 00:32:00,
2013-04-10 19:34:00,39.3,38.0,29.73,NE,55,5.0,9.0,95,0.00,,,0.54,5,Wunderground v.1.15,2013-04-11 00:34:00,
2013-04-10 19:36:00,39.3,38.0,29.73,ENE,69,7.0,10.0,95,0.00,,,0.54,7,Wunderground v.1.15,2013-04-11 00:36:00,
2013-04-10 19:37:00,39.3,38.0,29.72,NE,40,6.0,10.0,95,0.00,,,0.54,7,Wunderground v.1.15,2013-04-11 00:37:00,
2013-04-10 19:39:00,39.3,38.0,29.72,ENE,72,9.0,10.0,95,0.00,,,0.54,9,Wunderground v.1.15,2013-04-11 00:39:00,
2013-04-10 19:41:00,39.3,38.0,29.73,ENE,75,8.0,12.0,95,0.00,,,0.54,9,Wunderground v.1.15,2013-04-11 00:41:00,
2013-04-10 19:43:00,39.2,37.9,29.73,ENE,67,10.0,15.0,95,0.00,,,0.54,11,Wunderground v.1.15,2013-04-11 00:43:00,
2013-04-10 19:44:00,39.2,37.9,29.73,ENE,61,11.0,15.0,95,0.00,,,0.54,11,Wunderground v.1.15,2013-04-11 00:44:00,
2013-04-10 19:46:00,39.2,37.9,29.73,ENE,75,10.0,15.0,95,0.00,,,0.54,9,Wunderground v.1.15,2013-04-11 00:46:00,
2013-04-10 19:48:00,39.2,37.9,29.73,NE,39,8.0,15.0,95,0.00,,,0.54,7,Wunderground v.1.15,2013-04-11 00:48:00,
2013-04-10 19:49:00,39.2,37.9,29.72,ENE,63,7.0,15.0,95,0.00,,,0.54,5,Wunderground v.1.15,2013-04-11 00:49:00,
2013-04-10 19:53:00,39.2,37.9,29.72,North,9,7.0,11.0,95,0.00,,,0.54,0,Wunderground v.1.15,2013-04-11 00:53:00,
2013-04-10 19:54:00,39.2,37.9,29.72,NE,42,4.0,11.0,95,0.00,,,0.54,0,Wunderground v.1.15,2013-04-11 00:54:00,
2013-04-10 19:55:00,39.2,37.9,29.72,ENE,59,4.0,11.0,95,0.00,,,0.54,0,Wunderground v.1.15,2013-04-11 00:55:00,
2013-04-10 19:57:00,39.2,37.9,29.73,NE,44,8.0,11.0,95,0.00,,,0.54,0,Wunderground v.1.15,2013-04-11 00:57:00,
2013-04-10 19:58:00,39.2,37.9,29.73,NE,38,5.0,11.0,95,0.00,,,0.54,0,Wunderground v.1.15,2013-04-11 00:58:00,
2013-04-10 19:59:00,39.2,37.9,29.73,NNE,18,6.0,11.0,95,0.00,,,0.54,0,Wunderground v.1.15,2013-04-11 00:59:00,
2013-04-10 20:01:00,39.2,37.9,29.73,NE,36,5.0,11.0,95,0.00,,,0.54,0,Wunderground v.1.15,2013-04-11 01:01:00,
2013-04-10 20:02:00,39.2,37.9,29.73,ENE,57,1.0,11.0,95,0.00,,,0.54,0,Wunderground v.1.15,2013-04-11 01:02:00,
2013-04-10 20:04:00,39.2,37.9,29.74,East,82,3.0,11.0,95,0.00,,,0.54,0,Wunderground v.1.15,2013-04-11 01:04:00,
2013-04-10 20:05:00,39.2,37.9,29.74,NE,47,5.0,11.0,95,0.00,,,0.54,0,Wunderground v.1.15,2013-04-11 01:05:00,
2013-04-10 20:06:00,39.2,37.9,29.74,NE,48,4.0,11.0,95,0.00,,,0.54,0,Wunderground v.1.15,2013-04-11 01:06:00,
2013-04-10 20:09:00,39.2,37.9,29.74,NE,54,2.0,11.0,95,0.00,,,0.54,0,Wunderground v.1.15,2013-04-11 01:09:00,
2013-04-10 20:10:00,39.2,37.9,29.74,NE,53,7.0,7.0,95,0.00,,,0.54,0,Wunderground v.1.15,2013-04-11 01:10:00,
2013-04-10 20:12:00,39.2,37.9,29.74,East,80,7.0,7.0,95,0.00,,,0.54,0,Wunderground v.1.15,2013-04-11 01:12:00,
2013-04-10 20:13:00,39.2,37.9,29.74,ENE,65,7.0,7.0,95,0.00,,,0.54,0,Wunderground v.1.15,2013-04-11 01:13:00,
2013-04-10 20:15:00,39.2,37.9,29.75,ENE,78,5.0,7.0,95,0.00,,,0.54,0,Wunderground v.1.15,2013-04-11 01:15:00,
2013-04-10 20:17:00,39.2,37.9,29.75,NE,39,9.0,9.0,95,0.00,,,0.54,0,Wunderground v.1.15,2013-04-11 01:17:00,
2013-04-10 20:18:00,39.2,37.9,29.76,ENE,69,4.0,10.0,95,0.00,,,0.54,0,Wunderground v.1.15,2013-04-11 01:18:00,
2013-04-10 20:19:00,39.2,37.9,29.76,NE,44,6.0,10.0,95,0.00,,,0.54,0,Wunderground v.1.15,2013-04-11 01:19:00,
2013-04-10 20:23:00,39.2,37.9,29.77,ENE,70,5.0,10.0,95,0.00,,,0.54,0,Wunderground v.1.15,2013-04-11 01:23:00,
2013-04-10 20:24:00,39.2,37.9,29.77,ENE,78,4.0,10.0,95,0.00,,,0.54,0,Wunderground v.1.15,2013-04-11 01:24:00,
2013-04-10 20:29:00,39.2,37.9,29.77,ENE,75,3.0,10.0,95,0.00,,,0.54,0,Wunderground v.1.15,2013-04-11 01:29:00,
2013-04-10 20:30:00,39.3,38.0,29.77,ENE,64,1.0,5.0,95,0.00,,,0.54,0,Wunderground v.1.15,2013-04-11 01:30:00,
2013-04-10 20:35:00,39.3,38.0,29.76,East,90,8.0,10.0,95,0.00,,,0.54,0,Wunderground v.1.15,2013-04-11 01:35:00,
2013-04-10 20:39:00,39.3,38.0,29.76,ENE,61,8.0,13.0,95,0.00,,,0.54,0,Wunderground v.1.15,2013-04-11 01:39:00,
2013-04-10 20:40:00,39.2,37.9,29.76,ENE,60,8.0,9.0,95,0.00,,,0.54,0,Wunderground v.1.15,2013-04-11 01:40:00,
2013-04-10 20:41:00,39.3,38.0,29.76,East,80,6.0,9.0,95,0.00,,,0.55,0,Wunderground v.1.15,2013-04-11 01:41:00,
2013-04-10 20:45:00,39.2,37.9,29.75,ENE,62,11.0,11.0,95,0.00,,,0.55,0,Wunderground v.1.15,2013-04-11 01:45:00,
2013-04-10 20:46:00,39.2,37.9,29.75,ENE,77,7.0,11.0,95,0.00,,,0.55,0,Wunderground v.1.15,2013-04-11 01:46:00,
2013-04-10 20:48:00,39.2,37.9,29.75,ENE,63,4.0,11.0,95,0.00,,,0.55,0,Wunderground v.1.15,2013-04-11 01:48:00,
2013-04-10 20:50:00,39.2,37.9,29.75,ENE,63,5.0,11.0,95,0.00,,,0.55,0,Wunderground v.1.15,2013-04-11 01:50:00,
2013-04-10 20:51:00,39.2,37.9,29.75,ENE,74,4.0,7.0,95,0.00,,,0.55,0,Wunderground v.1.15,2013-04-11 01:51:00,
2013-04-10 20:54:00,39.1,37.8,29.75,ENE,63,3.0,7.0,95,0.00,,,0.55,0,Wunderground v.1.15,2013-04-11 01:54:00,
2013-04-10 20:55:00,39.1,37.8,29.75,ENE,76,3.0,7.0,95,0.00,,,0.55,0,Wunderground v.1.15,2013-04-11 01:55:00,
2013-04-10 20:56:00,39.1,37.8,29.75,ENE,62,5.0,7.0,95,0.00,,,0.55,0,Wunderground v.1.15,2013-04-11 01:56:00,
2013-04-10 21:00:00,39.1,37.8,29.76,East,82,2.0,4.0,95,0.00,,,0.55,0,Wunderground v.1.15,2013-04-11 02:00:00,
2013-04-10 21:02:00,39.1,38.1,29.76,NE,55,3.0,4.0,96,0.00,,,0.56,0,Wunderground v.1.15,2013-04-11 02:02:00,
2013-04-10 21:03:00,39.1,38.1,29.76,East,79,9.0,9.0,96,0.00,,,0.56,0,Wunderground v.1.15,2013-04-11 02:03:00,
2013-04-10 21:04:00,39.1,38.1,29.76,ENE,59,4.0,9.0,96,0.00,,,0.56,0,Wunderground v.1.15,2013-04-11 02:04:00,
2013-04-10 21:05:00,39.1,38.1,29.76,East,83,5.0,9.0,96,0.00,,,0.56,0,Wunderground v.1.15,2013-04-11 02:05:00,
2013-04-10 21:07:00,39.1,38.1,29.76,East,94,5.0,9.0,96,0.00,,,0.56,0,Wunderground v.1.15,2013-04-11 02:07:00,
2013-04-10 21:08:00,39.1,38.1,29.76,East,97,7.0,9.0,96,0.00,,,0.56,0,Wunderground v.1.15,2013-04-11 02:08:00,
2013-04-10 21:09:00,39.1,38.1,29.76,ENE,61,2.0,9.0,96,0.00,,,0.56,0,Wunderground v.1.15,2013-04-11 02:09:00,
2013-04-10 21:13:00,39.1,38.1,29.76,ENE,59,4.0,5.0,96,0.00,,,0.56,0,Wunderground v.1.15,2013-04-11 02:13:00,
2013-04-10 21:14:00,39.1,38.1,29.76,ENE,74,4.0,5.0,96,0.00,,,0.56,0,Wunderground v.1.15,2013-04-11 02:14:00,
2013-04-10 21:16:00,39.1,38.1,29.76,East,80,6.0,6.0,96,0.05,,,0.57,0,Wunderground v.1.15,2013-04-11 02:16:00,
2013-04-10 21:18:00,39.1,38.1,29.75,ENE,60,5.0,7.0,96,0.05,,,0.57,0,Wunderground v.1.15,2013-04-11 02:18:00,
2013-04-10 21:20:00,39.0,38.0,29.75,NE,47,6.0,6.0,96,0.05,,,0.57,0,Wunderground v.1.15,2013-04-11 02:20:00,
2013-04-10 21:21:00,39.1,38.1,29.75,ENE,71,3.0,6.0,96,0.05,,,0.57,0,Wunderground v.1.15,2013-04-11 02:21:00,
2013-04-10 21:22:00,39.0,38.0,29.75,ENE,69,4.0,7.0,96,0.05,,,0.57,0,Wunderground v.1.15,2013-04-11 02:22:00,
2013-04-10 21:23:00,39.0,38.0,29.75,ENE,64,3.0,7.0,96,0.05,,,0.57,0,Wunderground v.1.15,2013-04-11 02:23:00,
2013-04-10 21:26:00,39.0,38.0,29.75,NNE,32,6.0,8.0,96,0.05,,,0.57,0,Wunderground v.1.15,2013-04-11 02:26:00,
2013-04-10 21:27:00,39.0,38.0,29.75,ENE,64,4.0,8.0,96,0.05,,,0.57,0,Wunderground v.1.15,2013-04-11 02:27:00,
2013-04-10 21:28:00,39.1,38.1,29.75,NE,40,3.0,8.0,96,0.04,,,0.57,0,Wunderground v.1.15,2013-04-11 02:28:00,
2013-04-10 21:30:00,39.1,38.1,29.75,ENE,61,8.0,8.0,96,0.04,,,0.58,0,Wunderground v.1.15,2013-04-11 02:30:00,
2013-04-10 21:32:00,39.0,38.0,29.75,NE,35,4.0,8.0,96,0.04,,,0.58,0,Wunderground v.1.15,2013-04-11 02:32:00,
2013-04-10 21:33:00,39.0,38.0,29.74,ENE,61,4.0,8.0,96,0.04,,,0.58,0,Wunderground v.1.15,2013-04-11 02:33:00,
2013-04-10 21:36:00,39.0,38.0,29.74,NE,54,3.0,8.0,96,0.04,,,0.58,0,Wunderground v.1.15,2013-04-11 02:36:00,
2013-04-10 21:37:00,39.0,38.0,29.74,NE,49,4.0,8.0,96,0.04,,,0.58,0,Wunderground v.1.15,2013-04-11 02:37:00,
2013-04-10 21:39:00,39.0,38.0,29.75,ENE,78,4.0,8.0,96,0.04,,,0.58,0,Wunderground v.1.15,2013-04-11 02:39:00,
2013-04-10 21:41:00,39.0,38.0,29.75,NE,43,3.0,4.0,96,0.04,,,0.58,0,Wunderground v.1.15,2013-04-11 02:41:00,
2013-04-10 21:42:00,39.0,38.0,29.75,ENE,73,5.0,5.0,96,0.04,,,0.58,0,Wunderground v.1.15,2013-04-11 02:42:00,
2013-04-10 21:43:00,39.0,38.0,29.75,ENE,72,2.0,5.0,96,0.04,,,0.58,0,Wunderground v.1.15,2013-04-11 02:43:00,
2013-04-10 21:46:00,39.0,38.0,29.75,ENE,63,3.0,5.0,96,0.00,,,0.58,0,Wunderground v.1.15,2013-04-11 02:46:00,
2013-04-10 21:47:00,39.0,38.0,29.75,NE,55,2.0,5.0,96,0.00,,,0.58,0,Wunderground v.1.15,2013-04-11 02:47:00,
2013-04-10 21:48:00,38.9,37.9,29.75,ENE,71,2.0,5.0,96,0.00,,,0.58,0,Wunderground v.1.15,2013-04-11 02:48:00,
2013-04-10 21:49:00,39.0,38.0,29.75,ENE,57,4.0,5.0,96,0.00,,,0.58,0,Wunderground v.1.15,2013-04-11 02:49:00,
2013-04-10 21:51:00,39.0,38.0,29.74,ENE,67,3.0,5.0,96,0.00,,,0.58,0,Wunderground v.1.15,2013-04-11 02:51:00,
2013-04-10 21:53:00,39.0,38.0,29.75,ENE,61,5.0,5.0,96,0.00,,,0.58,0,Wunderground v.1.15,2013-04-11 02:53:00,
2013-04-10 21:54:00,39.0,38.0,29.75,ENE,59,5.0,6.0,96,0.00,,,0.58,0,Wunderground v.1.15,2013-04-11 02:54:00,
2013-04-10 21:56:00,39.0,38.0,29.75,ENE,67,3.0,6.0,96,0.00,,,0.58,0,Wunderground v.1.15,2013-04-11 02:56:00,
2013-04-10 21:59:00,39.0,38.2,29.74,NE,55,4.0,6.0,97,0.00,,,0.59,0,Wunderground v.1.15,2013-04-11 02:59:00,
2013-04-10 22:01:00,38.9,38.1,29.75,ENE,63,4.0,5.0,97,0.00,,,0.59,0,Wunderground v.1.15,2013-04-11 03:01:00,
2013-04-10 22:03:00,38.9,38.1,29.74,ENE,67,2.0,5.0,97,0.00,,,0.59,0,Wunderground v.1.15,2013-04-11 03:03:00,
2013-04-10 22:05:00,38.9,38.1,29.74,NE,35,5.0,5.0,97,0.00,,,0.59,0,Wunderground v.1.15,2013-04-11 03:05:00,
2013-04-10 22:08:00,38.9,38.1,29.74,ENE,57,4.0,5.0,97,0.06,,,0.60,0,Wunderground v.1.15,2013-04-11 03:08:00,
2013-04-10 22:09:00,38.9,38.1,29.74,ENE,75,3.0,5.0,97,0.06,,,0.60,0,Wunderground v.1.15,2013-04-11 03:09:00,
2013-04-10 22:14:00,38.9,38.1,29.74,East,93,2.0,7.0,97,0.06,,,0.60,0,Wunderground v.1.15,2013-04-11 03:14:00,
2013-04-10 22:15:00,38.9,38.1,29.73,ENE,73,2.0,7.0,97,0.08,,,0.61,0,Wunderground v.1.15,2013-04-11 03:15:00,
2013-04-10 22:17:00,38.9,38.1,29.73,ENE,76,3.0,7.0,97,0.24,,,0.62,0,Wunderground v.1.15,2013-04-11 03:17:00,
2013-04-10 22:19:00,38.9,38.1,29.73,East,88,5.0,7.0,97,0.22,,,0.62,0,Wunderground v.1.15,2013-04-11 03:19:00,
2013-04-10 22:20:00,38.9,38.1,29.73,ENE,57,7.0,7.0,97,0.15,,,0.62,0,Wunderground v.1.15,2013-04-11 03:20:00,
2013-04-10 22:22:00,38.9,38.1,29.73,NE,52,3.0,7.0,97,0.10,,,0.62,0,Wunderground v.1.15,2013-04-11 03:22:00,
2013-04-10 22:24:00,38.9,38.1,29.73,ENE,59,3.0,7.0,97,0.07,,,0.62,0,Wunderground v.1.15,2013-04-11 03:24:00,
2013-04-10 22:25:00,38.9,38.1,29.73,NE,46,5.0,7.0,97,0.07,,,0.62,0,Wunderground v.1.15,2013-04-11 03:25:00,
2013-04-10 22:28:00,38.9,38.1,29.72,ENE,61,4.0,9.0,97,0.05,,,0.62,0,Wunderground v.1.15,2013-04-11 03:28:00,
2013-04-10 22:31:00,38.9,38.1,29.72,ENE,68,4.0,8.0,97,0.04,,,0.62,0,Wunderground v.1.15,2013-04-11 03:31:00,
2013-04-10 22:33:00,38.9,38.1,29.71,NE,54,7.0,8.0,97,0.04,,,0.63,0,Wunderground v.1.15,2013-04-11 03:33:00,
2013-04-10 22:34:00,38.8,38.0,29.71,NE,36,4.0,8.0,97,0.04,,,0.63,0,Wunderground v.1.15,2013-04-11 03:34:00,
2013-04-10 22:37:00,38.8,38.0,29.71,NE,45,6.0,8.0,97,0.04,,,0.63,0,Wunderground v.1.15,2013-04-11 03:37:00,
2013-04-10 22:39:00,38.8,38.0,29.71,ENE,62,3.0,10.0,97,0.04,,,0.63,0,Wunderground v.1.15,2013-04-11 03:39:00,
2013-04-10 22:41:00,38.8,38.0,29.70,East,86,8.0,8.0,97,0.04,,,0.63,0,Wunderground v.1.15,2013-04-11 03:41:00,
2013-04-10 22:43:00,38.8,38.0,29.71,NE,48,6.0,9.0,97,0.04,,,0.63,0,Wunderground v.1.15,2013-04-11 03:43:00,
2013-04-10 22:44:00,38.8,38.0,29.71,East,84,7.0,9.0,97,0.04,,,0.63,0,Wunderground v.1.15,2013-04-11 03:44:00,
2013-04-10 22:47:00,38.8,38.0,29.71,ENE,67,7.0,9.0,97,0.04,,,0.63,0,Wunderground v.1.15,2013-04-11 03:47:00,
2013-04-10 22:48:00,38.8,38.0,29.71,ENE,78,4.0,9.0,97,0.04,,,0.63,0,Wunderground v.1.15,2013-04-11 03:48:00,
2013-04-10 22:50:00,38.8,38.0,29.71,ENE,59,4.0,7.0,97,0.00,,,0.63,0,Wunderground v.1.15,2013-04-11 03:50:00,
2013-04-10 22:52:00,38.8,38.0,29.71,NE,55,5.0,7.0,97,0.00,,,0.63,0,Wunderground v.1.15,2013-04-11 03:52:00,
2013-04-10 22:53:00,38.8,38.0,29.71,ENE,67,2.0,7.0,97,0.00,,,0.63,0,Wunderground v.1.15,2013-04-11 03:53:00,
2013-04-10 22:54:00,38.8,38.0,29.71,NE,50,5.0,7.0,97,0.00,,,0.63,0,Wunderground v.1.15,2013-04-11 03:54:00,
2013-04-10 22:56:00,38.8,38.0,29.70,ENE,65,2.0,7.0,97,0.00,,,0.63,0,Wunderground v.1.15,2013-04-11 03:56:00,
2013-04-10 22:57:00,38.8,38.0,29.70,NE,53,2.0,7.0,97,0.00,,,0.63,0,Wunderground v.1.15,2013-04-11 03:57:00,
2013-04-10 22:59:00,38.8,38.0,29.71,NE,53,0.0,7.0,97,0.00,,,0.63,0,Wunderground v.1.15,2013-04-11 03:59:00,
2013-04-10 23:00:00,38.8,38.0,29.71,NE,53,3.0,7.0,97,0.00,,,0.64,0,Wunderground v.1.15,2013-04-11 04:00:00,
2013-04-10 23:01:00,38.8,38.0,29.71,NE,55,3.0,4.0,97,0.00,,,0.64,0,Wunderground v.1.15,2013-04-11 04:01:00,
2013-04-10 23:06:00,38.8,38.0,29.71,ENE,71,1.0,5.0,97,0.00,,,0.64,0,Wunderground v.1.15,2013-04-11 04:06:00,
2013-04-10 23:08:00,38.8,38.0,29.71,ENE,76,7.0,7.0,97,0.00,,,0.64,0,Wunderground v.1.15,2013-04-11 04:08:00,
2013-04-10 23:11:00,38.8,38.0,29.71,East,80,3.0,4.0,97,0.00,,,0.64,0,Wunderground v.1.15,2013-04-11 04:11:00,
2013-04-10 23:12:00,38.8,38.0,29.71,East,83,1.0,4.0,97,0.00,,,0.64,0,Wunderground v.1.15,2013-04-11 04:12:00,
2013-04-10 23:13:00,38.7,37.9,29.71,East,83,3.0,4.0,97,0.00,,,0.64,0,Wunderground v.1.15,2013-04-11 04:13:00,
2013-04-10 23:18:00,38.7,37.9,29.71,ENE,78,4.0,5.0,97,0.00,,,0.64,0,Wunderground v.1.15,2013-04-11 04:18:00,
2013-04-10 23:22:00,38.7,37.9,29.71,ENE,59,3.0,4.0,97,0.00,,,0.64,0,Wunderground v.1.15,2013-04-11 04:22:00,
2013-04-10 23:23:00,38.7,37.9,29.71,East,81,2.0,4.0,97,0.00,,,0.64,0,Wunderground v.1.15,2013-04-11 04:23:00,
2013-04-10 23:24:00,38.7,37.9,29.71,East,81,3.0,4.0,97,0.00,,,0.64,0,Wunderground v.1.15,2013-04-11 04:24:00,
2013-04-10 23:25:00,38.7,37.9,29.71,East,81,1.0,4.0,97,0.00,,,0.64,0,Wunderground v.1.15,2013-04-11 04:25:00,
2013-04-10 23:29:00,38.7,37.9,29.71,ENE,76,2.0,4.0,97,0.00,,,0.64,0,Wunderground v.1.15,2013-04-11 04:29:00,
2013-04-10 23:30:00,38.7,37.9,29.71,ENE,76,0.0,4.0,97,0.00,,,0.64,0,Wunderground v.1.15,2013-04-11 04:30:00,
2013-04-10 23:33:00,38.7,37.9,29.71,East,96,0.0,2.0,97,0.00,,,0.64,0,Wunderground v.1.15,2013-04-11 04:33:00,
2013-04-10 23:35:00,38.7,37.9,29.72,East,98,1.0,2.0,97,0.00,,,0.64,0,Wunderground v.1.15,2013-04-11 04:35:00,
2013-04-10 23:36:00,38.7,37.9,29.72,East,98,2.0,2.0,97,0.00,,,0.64,0,Wunderground v.1.15,2013-04-11 04:36:00,
2013-04-10 23:39:00,38.7,37.9,29.72,ESE,119,2.0,4.0,97,0.00,,,0.64,0,Wunderground v.1.15,2013-04-11 04:39:00,
2013-04-10 23:40:00,38.7,37.9,29.71,ESE,119,0.0,2.0,97,0.00,,,0.64,0,Wunderground v.1.15,2013-04-11 04:40:00,
2013-04-10 23:42:00,38.7,37.9,29.71,ESE,119,2.0,4.0,97,0.00,,,0.64,0,Wunderground v.1.15,2013-04-11 04:42:00,
2013-04-10 23:44:00,38.7,37.9,29.71,ESE,119,1.0,4.0,97,0.00,,,0.64,0,Wunderground v.1.15,2013-04-11 04:44:00,
2013-04-10 23:47:00,38.7,37.9,29.71,ESE,119,2.0,4.0,97,0.00,,,0.64,0,Wunderground v.1.15,2013-04-11 04:47:00,
2013-04-10 23:51:00,38.7,37.9,29.70,ESE,119,1.0,1.0,97,0.00,,,0.64,0,Wunderground v.1.15,2013-04-11 04:51:00,
2013-04-10 23:52:00,38.7,37.9,29.70,ESE,119,1.0,2.0,97,0.00,,,0.64,0,Wunderground v.1.15,2013-04-11 04:52:00,
2013-04-10 23:53:00,38.7,37.9,29.70,East,94,3.0,3.0,97,0.00,,,0.64,0,Wunderground v.1.15,2013-04-11 04:53:00,
2013-04-10 23:55:00,38.7,37.9,29.70,East,94,1.0,3.0,97,0.00,,,0.64,0,Wunderground v.1.15,2013-04-11 04:55:00,
2013-04-10 23:57:00,38.7,37.9,29.70,East,94,0.0,3.0,97,0.00,,,0.64,0,Wunderground v.1.15,2013-04-11 04:57:00,
2013-04-10 23:59:00,38.7,37.9,29.70,East,94,1.0,3.0,97,0.00,,,0.00,0,Wunderground v.1.15,2013-04-11 04:59:00,